Observation data for Snyder SSW on 04/24/2019      Previous  Date  Next       Current Mesonet Observations  Soil Data  Daily Summary Page  Observations in Plain Language
KWT1 240500Z 03010KT 13/13 A2996 RMK A01 T01310125  RH  096%=      5-min Rain = 0
KWT1 240501Z 02009G14KT 13/13 A2997 RMK A01 T01310125  RH  096%=      5-min Rain = 0
KWT1 240502Z 02010KT 13/13 A2997 RMK A01 T01310125  RH  096%=      5-min Rain = 0
KWT1 240503Z 03010KT 13/13 A2997 RMK A01 T01310125  RH  096%=      5-min Rain = 0
KWT1 240504Z 04011KT 13/13 A2997 RMK A01 T01310125  RH  096%=      5-min Rain = 0
KWT1 240505Z 04011G16KT 13/13 A2997 RMK A01 T01310125  RH  096%=      5-min Rain = 0
KWT1 240506Z 04012KT 13/13 A2997 RMK A01 T01310126  RH  096%=      5-min Rain = 0
KWT1 240507Z 03011KT 13/13 A2997 RMK A01 T01310125  RH  096%=      5-min Rain = 0
KWT1 240508Z 04012KT 13/13 A2997 RMK A01 T01310126  RH  096%=      5-min Rain = 0
KWT1 240509Z 04010KT 13/13 A2997 RMK A01 T01310126  RH  096%=      5-min Rain = 0
KWT1 240510Z 03009KT 13/13 A2997 RMK A01 T01310126  RH  097%=      5-min Rain = 0
KWT1 240511Z 02009KT 13/13 A2997 RMK A01 T01310126  RH  097%=      5-min Rain = 0
KWT1 240512Z 02009KT 13/13 A2997 RMK A01 T01310126  RH  097%=      5-min Rain = 0
KWT1 240513Z 03008KT 13/13 A2998 RMK A01 T01310126  RH  097%=      5-min Rain = 0
KWT1 240514Z 03009KT 13/13 A2998 RMK A01 T01310126  RH  097%=      5-min Rain = 0
KWT1 240515Z 03010KT 13/13 A2998 RMK A01 T01310126  RH  097%=      5-min Rain = 0
KWT1 240516Z 03011KT 13/13 A2998 RMK A01 T01310125  RH  096%=      5-min Rain = 0
KWT1 240517Z 03009KT 13/12 A2998 RMK A01 T01310124  RH  095%=      5-min Rain = 0
KWT1 240518Z 03011KT 13/13 A2998 RMK A01 T01320125  RH  095%=      5-min Rain = 0
KWT1 240519Z 03012KT 13/12 A2998 RMK A01 T01320124  RH  095%=      5-min Rain = 0
KWT1 240520Z 03011KT 13/12 A2998 RMK A01 T01320124  RH  095%=      5-min Rain = 0
KWT1 240521Z 03009KT 13/12 A2998 RMK A01 T01320124  RH  095%=      5-min Rain = 0
KWT1 240522Z 03008KT 13/12 A2998 RMK A01 T01320124  RH  095%=      5-min Rain = 0
KWT1 240523Z 03009KT 13/12 A2998 RMK A01 T01320124  RH  095%=      5-min Rain = 0
KWT1 240524Z 03009G14KT 13/12 A2998 RMK A01 T01320124  RH  095%=      5-min Rain = 0
KWT1 240525Z 02010KT 13/12 A2998 RMK A01 T01310123  RH  095%=      5-min Rain = 0
KWT1 240526Z 02009KT 13/12 A2998 RMK A01 T01310122  RH  094%=      5-min Rain = 0
KWT1 240527Z 03009KT 13/12 A2999 RMK A01 T01320122  RH  094%=      5-min Rain = 0
KWT1 240528Z 04008KT 13/12 A2999 RMK A01 T01320121  RH  094%=      5-min Rain = 0
KWT1 240529Z 03007KT 13/12 A2999 RMK A01 T01320122  RH  094%=      5-min Rain = 0
KWT1 240530Z 03008KT 13/12 A2999 RMK A01 T01320122  RH  094%=      5-min Rain = 0
KWT1 240531Z 03007KT 13/12 A2999 RMK A01 T01310122  RH  094%=      5-min Rain = 0
KWT1 240532Z 04009KT 13/12 A2999 RMK A01 T01320122  RH  094%=      5-min Rain = 0
KWT1 240533Z 04008KT 13/12 A2999 RMK A01 T01310122  RH  094%=      5-min Rain = 0
KWT1 240534Z 05006KT 13/12 A2999 RMK A01 T01320122  RH  094%=      5-min Rain = 0
KWT1 240535Z 05006KT 13/12 A2998 RMK A01 T01320122  RH  094%=      5-min Rain = 0
KWT1 240536Z 05006KT 13/12 A2998 RMK A01 T01320123  RH  094%=      5-min Rain = 0
KWT1 240537Z 04008KT 13/12 A2998 RMK A01 T01310122  RH  094%=      5-min Rain = 0
KWT1 240538Z 04008KT 13/12 A2998 RMK A01 T01310122  RH  094%=      5-min Rain = 0
KWT1 240539Z 05009KT 13/12 A2997 RMK A01 T01310122  RH  094%=      5-min Rain = 0
KWT1 240540Z 04009KT 13/12 A2996 RMK A01 T01310122  RH  094%=      5-min Rain = 0
KWT1 240541Z 05010KT 13/12 A2996 RMK A01 T01310123  RH  095%=      5-min Rain = 0
KWT1 240542Z 05012KT 13/12 A2995 RMK A01 T01310123  RH  095%=      5-min Rain = 0
KWT1 240543Z 06014KT 13/12 A2994 RMK A01 T01310123  RH  095%=      5-min Rain = 0
KWT1 240544Z 06016KT 13/12 A2993 RMK A01 T01310124  RH  095%=      5-min Rain = 0
KWT1 240545Z 06015KT 13/12 A2992 RMK A01 T01300123  RH  095%=      5-min Rain = 0
KWT1 240546Z 07012KT 13/12 A2992 RMK A01 T01300123  RH  095%=      5-min Rain = 0
KWT1 240547Z 06012KT 13/12 A2992 RMK A01 T01300124  RH  096%=      5-min Rain = 0
KWT1 240548Z 06013KT 13/12 A2992 RMK A01 T01300123  RH  096%=      5-min Rain = 0
KWT1 240549Z 06012KT 13/12 A2993 RMK A01 T01300123  RH  096%=      5-min Rain = 0
KWT1 240550Z 06013KT 13/12 A2993 RMK A01 T01300123  RH  096%=      5-min Rain = 0
KWT1 240551Z 05014KT 13/12 A2993 RMK A01 T01300123  RH  096%=      5-min Rain = 0
KWT1 240552Z 05013KT 13/12 A2993 RMK A01 T01300123  RH  096%=      5-min Rain = 0
KWT1 240553Z 05012KT 13/12 A2994 RMK A01 T01300123  RH  096%=      5-min Rain = 0
KWT1 240554Z 04011KT 13/12 A2995 RMK A01 T01300123  RH  096%=      5-min Rain = 0
KWT1 240555Z 04010KT 13/12 A2995 RMK A01 T01300124  RH  096%=      5-min Rain = 0
KWT1 240556Z 04009KT 13/12 A2996 RMK A01 T01300124  RH  096%=      5-min Rain = 0
KWT1 240557Z 04010KT 13/12 A2997 RMK A01 T01300124  RH  096%=      5-min Rain = 0
KWT1 240558Z 03008KT 13/12 A2997 RMK A01 T01300124  RH  096%=      5-min Rain = 0
KWT1 240559Z 02008G13KT 13/12 A2998 RMK A01 T01300124  RH  096%=      5-min Rain = 0
KWT1 240600Z 03012KT 13/12 A2998 RMK A01 T01300124  RH  096%=      5-min Rain = 0
KWT1 240601Z 03009KT 13/12 A2998 RMK A01 T01300124  RH  096%=      5-min Rain = 0
KWT1 240602Z 02011KT 13/13 A2998 RMK A01 T01310125  RH  096%=      5-min Rain = 0
KWT1 240603Z 02010KT 13/13 A2998 RMK A01 T01310125  RH  096%=      5-min Rain = 0
KWT1 240604Z 01009KT 13/13 A2999 RMK A01 T01300125  RH  096%=      5-min Rain = 0
KWT1 240605Z 01010KT 13/13 A2999 RMK A01 T01310125  RH  096%=      5-min Rain = 0
KWT1 240606Z 02010KT 13/13 A2999 RMK A01 T01310125  RH  096%=      5-min Rain = 0
KWT1 240607Z 02011KT 13/13 A2999 RMK A01 T01310125  RH  096%=      5-min Rain = 0
KWT1 240608Z 02012KT 13/13 A2999 RMK A01 T01310125  RH  096%=      5-min Rain = 0
KWT1 240609Z 02009KT 13/13 A2999 RMK A01 T01310125  RH  096%=      5-min Rain = 0
KWT1 240610Z 03011KT 13/13 A2999 RMK A01 T01320125  RH  096%=      5-min Rain = 0
KWT1 240611Z 03012KT 13/13 A2999 RMK A01 T01310125  RH  096%=      5-min Rain = 0
KWT1 240612Z 03011KT 13/13 A2999 RMK A01 T01320125  RH  096%=      5-min Rain = 0
KWT1 240613Z 03011KT 13/13 A2998 RMK A01 T01320126  RH  096%=      5-min Rain = 0
KWT1 240614Z 03012KT 13/13 A2998 RMK A01 T01320126  RH  096%=      5-min Rain = 0
KWT1 240615Z 04014KT 13/13 A2997 RMK A01 T01320125  RH  096%=      5-min Rain = 0
KWT1 240616Z 04012KT 13/13 A2996 RMK A01 T01320126  RH  096%=      5-min Rain = 0
KWT1 240617Z 04015KT 13/13 A2996 RMK A01 T01310126  RH  096%=      5-min Rain = 0
KWT1 240618Z 04015KT 13/13 A2995 RMK A01 T01310125  RH  096%=      5-min Rain = 0
KWT1 240619Z 04013KT 13/13 A2995 RMK A01 T01310126  RH  096%=      5-min Rain = 0
KWT1 240620Z 04015KT 13/13 A2994 RMK A01 T01310126  RH  096%=      5-min Rain = 0
KWT1 240621Z 04016KT 13/13 A2994 RMK A01 T01310125  RH  096%=      5-min Rain = 0
KWT1 240622Z 03015KT 13/13 A2994 RMK A01 T01310125  RH  096%=      5-min Rain = 0
KWT1 240623Z 04012KT 13/13 A2995 RMK A01 T01310125  RH  096%=      5-min Rain = 0
KWT1 240624Z 02010KT 13/13 A2996 RMK A01 T01310125  RH  096%=      5-min Rain = 0
KWT1 240625Z 02009KT 13/13 A2997 RMK A01 T01310125  RH  096%=      5-min Rain = 0
KWT1 240626Z 03010KT 13/13 A2998 RMK A01 T01310125  RH  096%=      5-min Rain = 0
KWT1 240627Z 03008KT 13/12 A2998 RMK A01 T01310124  RH  096%=      5-min Rain = 0
KWT1 240628Z 03009KT 13/12 A2998 RMK A01 T01310124  RH  096%=      5-min Rain = 0
KWT1 240629Z 03008KT 13/12 A2998 RMK A01 T01310124  RH  096%=      5-min Rain = 0
KWT1 240630Z 03011KT 13/12 A2999 RMK A01 T01310124  RH  096%=      5-min Rain = 0
KWT1 240631Z 03010KT 13/12 A2999 RMK A01 T01310124  RH  095%=      5-min Rain = 0
KWT1 240632Z 03011KT 13/12 A2999 RMK A01 T01310124  RH  095%=      5-min Rain = 0
KWT1 240633Z 04011KT 13/12 A2998 RMK A01 T01310124  RH  095%=      5-min Rain = 0
KWT1 240634Z 05011KT 13/12 A2999 RMK A01 T01310123  RH  095%=      5-min Rain = 0
KWT1 240635Z 04011KT 13/12 A2999 RMK A01 T01310123  RH  095%=      5-min Rain = 0
KWT1 240636Z 04009KT 13/12 A2999 RMK A01 T01320124  RH  095%=      5-min Rain = 0
KWT1 240637Z 04008KT 13/12 A30 RMK A01 T01320124  RH  095%=      5-min Rain = 0
KWT1 240638Z 03009KT 13/12 A30 RMK A01 T01320124  RH  095%=      5-min Rain = 0
KWT1 240639Z 04009KT 13/12 A30 RMK A01 T01310124  RH  095%=      5-min Rain = 0
KWT1 240640Z 04009KT 13/12 A30 RMK A01 T01310124  RH  095%=      5-min Rain = 0
KWT1 240641Z 05009KT 13/12 A30 RMK A01 T01320124  RH  095%=      5-min Rain = 0
KWT1 240642Z 05008G13KT 13/12 A30 RMK A01 T01320124  RH  095%=      5-min Rain = 0
KWT1 240643Z 05010KT 13/12 A30 RMK A01 T01320124  RH  095%=      5-min Rain = 0
KWT1 240644Z 04010KT 13/13 A30 RMK A01 T01320125  RH  095%=      5-min Rain = 0
KWT1 240645Z 05010KT 13/13 A30 RMK A01 T01320125  RH  095%=      5-min Rain = 0
KWT1 240646Z 04008KT 13/13 A30 RMK A01 T01320125  RH  095%=      5-min Rain = 0
KWT1 240647Z 05008KT 13/13 A30 RMK A01 T01320126  RH  096%=      5-min Rain = 0
KWT1 240648Z 06011KT 13/13 A30 RMK A01 T01330126  RH  096%=      5-min Rain = 0
KWT1 240649Z 05012KT 13/13 A30 RMK A01 T01320125  RH  095%=      5-min Rain = 0
KWT1 240650Z 06009KT 13/13 A30 RMK A01 T01320125  RH  095%=      5-min Rain = 0
KWT1 240651Z 05009KT 13/13 A30 RMK A01 T01320125  RH  095%=      5-min Rain = 0
KWT1 240652Z 05011KT 13/13 A30 RMK A01 T01320125  RH  095%=      5-min Rain = 0
KWT1 240653Z 05012KT 13/13 A30 RMK A01 T01330125  RH  095%=      5-min Rain = 0
KWT1 240654Z 05011KT 13/13 A30 RMK A01 T01330125  RH  095%=      5-min Rain = 0
KWT1 240655Z 05012KT 13/12 A30 RMK A01 T01320124  RH  095%=      5-min Rain = 0
KWT1 240656Z 05011KT 13/12 A2999 RMK A01 T01330124  RH  095%=      5-min Rain = 0
KWT1 240657Z 05012KT 13/12 A2999 RMK A01 T01330124  RH  095%=      5-min Rain = 0
KWT1 240658Z 05010KT 13/12 A2999 RMK A01 T01330124  RH  094%=      5-min Rain = 0
KWT1 240659Z 05010KT 13/12 A2999 RMK A01 T01330124  RH  095%=      5-min Rain = 0
KWT1 240700Z 04011KT 13/12 A2999 RMK A01 T01330124  RH  095%=      5-min Rain = 0
KWT1 240701Z 04010KT 13/12 A2999 RMK A01 T01330124  RH  095%=      5-min Rain = 0
KWT1 240702Z 04011KT 13/13 A2999 RMK A01 T01330125  RH  095%=      5-min Rain = 0
KWT1 240703Z 04009KT 13/12 A30 RMK A01 T01330124  RH  095%=      5-min Rain = 0
KWT1 240704Z 04009KT 13/13 A30 RMK A01 T01330125  RH  095%=      5-min Rain = 0
KWT1 240705Z 04009KT 13/13 A30 RMK A01 T01330126  RH  095%=      5-min Rain = 0
KWT1 240706Z 04010KT 13/13 A2999 RMK A01 T01330125  RH  095%=      5-min Rain = 0
KWT1 240707Z 04011KT 13/13 A2999 RMK A01 T01330125  RH  095%=      5-min Rain = 0
KWT1 240708Z 04010KT 13/13 A2999 RMK A01 T01330125  RH  095%=      5-min Rain = 0
KWT1 240709Z 04010KT 13/13 A2999 RMK A01 T01330126  RH  095%=      5-min Rain = 0
KWT1 240710Z 04011KT 13/13 A2999 RMK A01 T01330125  RH  095%=      5-min Rain = 0
KWT1 240711Z 04012KT 13/13 A2999 RMK A01 T01320125  RH  096%=      5-min Rain = 0
KWT1 240712Z 03009KT 13/13 A2999 RMK A01 T01320125  RH  096%=      5-min Rain = 0
KWT1 240713Z 04009KT 13/13 A2998 RMK A01 T01320126  RH  096%=      5-min Rain = 0
KWT1 240714Z 04009KT 13/13 A2998 RMK A01 T01320126  RH  096%=      5-min Rain = 0
KWT1 240715Z 04009KT 13/13 A2998 RMK A01 T01320126  RH  096%=      5-min Rain = 0
KWT1 240716Z 04009KT 13/13 A2998 RMK A01 T01320126  RH  096%=      5-min Rain = 0
KWT1 240717Z 05009KT 13/13 A2998 RMK A01 T01320126  RH  096%=      5-min Rain = 0
KWT1 240718Z 04009KT 13/13 A2998 RMK A01 T01320126  RH  096%=      5-min Rain = 0
KWT1 240719Z 05010KT 13/13 A2999 RMK A01 T01320126  RH  096%=      5-min Rain = 0
KWT1 240720Z 05009KT 13/13 A2999 RMK A01 T01320126  RH  096%=      5-min Rain = 0
KWT1 240721Z 04008KT 13/13 A2999 RMK A01 T01320126  RH  096%=      5-min Rain = 0
KWT1 240722Z 04007KT 13/13 A2999 RMK A01 T01320126  RH  096%=      5-min Rain = 0
KWT1 240723Z 05008KT 13/13 A2999 RMK A01 T01320126  RH  096%=      5-min Rain = 0
KWT1 240724Z 05008KT 13/13 A2999 RMK A01 T01320126  RH  096%=      5-min Rain = 0
KWT1 240725Z 05009KT 13/13 A2999 RMK A01 T01310126  RH  096%=      5-min Rain = 0
KWT1 240726Z 05009KT 13/13 A2999 RMK A01 T01310126  RH  096%=      5-min Rain = 0
KWT1 240727Z 05007KT 13/13 A2998 RMK A01 T01320126  RH  096%=      5-min Rain = 0
KWT1 240728Z 05007KT 13/13 A2998 RMK A01 T01320126  RH  096%=      5-min Rain = 0
KWT1 240729Z 05007KT 13/13 A2998 RMK A01 T01320126  RH  097%=      5-min Rain = 0
KWT1 240730Z 05009KT 13/13 A2998 RMK A01 T01320126  RH  097%=      5-min Rain = 0
KWT1 240731Z 05009KT 13/13 A2998 RMK A01 T01320127  RH  097%=      5-min Rain = 0
KWT1 240732Z 05008KT 13/13 A2998 RMK A01 T01320127  RH  097%=      5-min Rain = 0
KWT1 240733Z 05010KT 13/13 A2998 RMK A01 T01320126  RH  097%=      5-min Rain = 0
KWT1 240734Z 05008KT 13/13 A2998 RMK A01 T01310126  RH  096%=      5-min Rain = 0
KWT1 240735Z 05011KT 13/13 A2998 RMK A01 T01310125  RH  096%=      5-min Rain = 0
KWT1 240736Z 05011KT 13/13 A2998 RMK A01 T01320125  RH  096%=      5-min Rain = 0
KWT1 240737Z 05009KT 13/13 A2998 RMK A01 T01320125  RH  096%=      5-min Rain = 0
KWT1 240738Z 05008KT 13/13 A2998 RMK A01 T01320125  RH  096%=      5-min Rain = 0
KWT1 240739Z 04009KT 13/13 A2998 RMK A01 T01310125  RH  096%=      5-min Rain = 0
KWT1 240740Z 05008KT 13/13 A2998 RMK A01 T01320125  RH  095%=      5-min Rain = 0
KWT1 240741Z 04010KT 13/13 A2998 RMK A01 T01320125  RH  095%=      5-min Rain = 0
KWT1 240742Z 04010KT 13/12 A2998 RMK A01 T01320124  RH  095%=      5-min Rain = 0
KWT1 240743Z 05009KT 13/12 A2998 RMK A01 T01320124  RH  095%=      5-min Rain = 0
KWT1 240744Z 04009KT 13/12 A2998 RMK A01 T01320124  RH  095%=      5-min Rain = 0
KWT1 240745Z 04008KT 13/13 A2997 RMK A01 T01320125  RH  095%=      5-min Rain = 0
KWT1 240746Z 04010KT 13/13 A2997 RMK A01 T01320125  RH  095%=      5-min Rain = 0
KWT1 240747Z 04010KT 13/13 A2997 RMK A01 T01320125  RH  095%=      5-min Rain = 0
KWT1 240748Z 04009KT 13/13 A2997 RMK A01 T01320125  RH  095%=      5-min Rain = 0
KWT1 240749Z 04010KT 13/12 A2997 RMK A01 T01320124  RH  095%=      5-min Rain = 0
KWT1 240750Z 03009KT 13/12 A2997 RMK A01 T01320124  RH  095%=      5-min Rain = 0
KWT1 240751Z 03007KT 13/13 A2997 RMK A01 T01320125  RH  095%=      5-min Rain = 0
KWT1 240752Z 04008KT 13/13 A2997 RMK A01 T01320125  RH  095%=      5-min Rain = 0
KWT1 240753Z 03009KT 13/13 A2997 RMK A01 T01320125  RH  095%=      5-min Rain = 0
KWT1 240754Z 03010KT 13/12 A2997 RMK A01 T01320124  RH  095%=      5-min Rain = 0
KWT1 240755Z 04010KT 13/12 A2997 RMK A01 T01320124  RH  095%=      5-min Rain = 0
KWT1 240756Z 03009KT 13/12 A2996 RMK A01 T01320124  RH  095%=      5-min Rain = 0
KWT1 240757Z 03011KT 13/12 A2996 RMK A01 T01320124  RH  095%=      5-min Rain = 0
KWT1 240758Z 03010KT 13/12 A2996 RMK A01 T01320123  RH  094%=      5-min Rain = 0
KWT1 240759Z 04009KT 13/12 A2996 RMK A01 T01320123  RH  094%=      5-min Rain = 0
KWT1 240800Z 03010KT 13/12 A2996 RMK A01 T01320123  RH  094%=      5-min Rain = 0
KWT1 240801Z 03011KT 13/12 A2996 RMK A01 T01320123  RH  094%=      5-min Rain = 0
KWT1 240802Z 04010KT 13/12 A2996 RMK A01 T01320123  RH  094%=      5-min Rain = 0
KWT1 240803Z 04009KT 13/12 A2996 RMK A01 T01320122  RH  094%=      5-min Rain = 0
KWT1 240804Z 04011KT 13/12 A2996 RMK A01 T01320122  RH  094%=      5-min Rain = 0
KWT1 240805Z 03009KT 13/12 A2996 RMK A01 T01320121  RH  093%=      5-min Rain = 0
KWT1 240806Z 03009KT 13/12 A2996 RMK A01 T01330122  RH  093%=      5-min Rain = 0
KWT1 240807Z 03009KT 13/12 A2996 RMK A01 T01320121  RH  093%=      5-min Rain = 0
KWT1 240808Z 02008KT 13/12 A2996 RMK A01 T01320122  RH  093%=      5-min Rain = 0
KWT1 240809Z 03007KT 13/12 A2996 RMK A01 T01320121  RH  093%=      5-min Rain = 0
KWT1 240810Z 03008KT 13/12 A2996 RMK A01 T01320121  RH  093%=      5-min Rain = 0
KWT1 240811Z 02008KT 13/12 A2996 RMK A01 T01320122  RH  094%=      5-min Rain = 0
KWT1 240812Z 02007KT 13/12 A2996 RMK A01 T01310122  RH  094%=      5-min Rain = 0
KWT1 240813Z 02008KT 13/12 A2996 RMK A01 T01310122  RH  094%=      5-min Rain = 0
KWT1 240814Z 02007KT 13/12 A2996 RMK A01 T01310122  RH  094%=      5-min Rain = 0
KWT1 240815Z 02008KT 13/12 A2996 RMK A01 T01310122  RH  094%=      5-min Rain = 0
KWT1 240816Z 03008KT 13/12 A2996 RMK A01 T01300122  RH  095%=      5-min Rain = 0
KWT1 240817Z 03006KT 13/12 A2996 RMK A01 T01300122  RH  095%=      5-min Rain = 0
KWT1 240818Z 02005KT 13/12 A2996 RMK A01 T01300122  RH  095%=      5-min Rain = 0
KWT1 240819Z 02006KT 13/12 A2996 RMK A01 T01300122  RH  095%=      5-min Rain = 0
KWT1 240820Z 01007KT 13/12 A2996 RMK A01 T01300122  RH  095%=      5-min Rain = 0
KWT1 240821Z 01008KT 13/12 A2996 RMK A01 T01290122  RH  096%=      5-min Rain = 0
KWT1 240822Z 02009KT 13/12 A2996 RMK A01 T01290123  RH  096%=      5-min Rain = 0
KWT1 240823Z 01007KT 13/12 A2996 RMK A01 T01290123  RH  096%=      5-min Rain = 0
KWT1 240824Z 02007KT 13/12 A2995 RMK A01 T01280122  RH  096%=      5-min Rain = 0
KWT1 240825Z 01006KT 13/12 A2995 RMK A01 T01280123  RH  096%=      5-min Rain = 0
KWT1 240826Z 01008KT 13/12 A2995 RMK A01 T01280123  RH  096%=      5-min Rain = 0
KWT1 240827Z 01007KT 13/12 A2995 RMK A01 T01280123  RH  097%=      5-min Rain = 0
KWT1 240828Z 01007KT 13/12 A2995 RMK A01 T01280123  RH  097%=      5-min Rain = 0
KWT1 240829Z 01009KT 13/12 A2995 RMK A01 T01280123  RH  097%=      5-min Rain = 0
KWT1 240830Z 02006KT 13/12 A2995 RMK A01 T01270123  RH  097%=      5-min Rain = 0
KWT1 240831Z 02009KT 13/12 A2995 RMK A01 T01280123  RH  097%=      5-min Rain = 0
KWT1 240832Z 02007KT 13/12 A2995 RMK A01 T01270123  RH  097%=      5-min Rain = 0
KWT1 240833Z 02006KT 13/12 A2995 RMK A01 T01270123  RH  097%=      5-min Rain = 0
KWT1 240834Z 02007KT 13/12 A2995 RMK A01 T01270123  RH  097%=      5-min Rain = 0
KWT1 240835Z 02007KT 13/12 A2995 RMK A01 T01270123  RH  097%=      5-min Rain = 0
KWT1 240836Z 02008KT 13/12 A2995 RMK A01 T01260122  RH  097%=      5-min Rain = 0
KWT1 240837Z 02008KT 13/12 A2995 RMK A01 T01270123  RH  097%=      5-min Rain = 0
KWT1 240838Z 02010KT 13/12 A2995 RMK A01 T01260122  RH  097%=      5-min Rain = 0
KWT1 240839Z 02009KT 13/12 A2995 RMK A01 T01270123  RH  097%=      5-min Rain = 0
KWT1 240840Z 03010KT 13/12 A2995 RMK A01 T01260122  RH  097%=      5-min Rain = 0
KWT1 240841Z 02009KT 13/12 A2995 RMK A01 T01260122  RH  097%=      5-min Rain = 0
KWT1 240842Z 01010KT 13/12 A2995 RMK A01 T01260122  RH  097%=      5-min Rain = 0
KWT1 240843Z 02011KT 13/12 A2995 RMK A01 T01260122  RH  097%=      5-min Rain = 0
KWT1 240844Z 02010KT 13/12 A2995 RMK A01 T01270122  RH  097%=      5-min Rain = 0
KWT1 240845Z 01009KT 13/12 A2995 RMK A01 T01260122  RH  097%=      5-min Rain = 0
KWT1 240846Z 02011KT 13/12 A2995 RMK A01 T01270122  RH  097%=      5-min Rain = 0
KWT1 240847Z 01010KT 13/12 A2995 RMK A01 T01270122  RH  097%=      5-min Rain = 0
KWT1 240848Z 01009KT 13/12 A2995 RMK A01 T01260122  RH  097%=      5-min Rain = 0
KWT1 240849Z 02009KT 13/12 A2995 RMK A01 T01270122  RH  097%=      5-min Rain = 0
KWT1 240850Z 02009KT 13/12 A2995 RMK A01 T01270122  RH  097%=      5-min Rain = 0
KWT1 240851Z 02010KT 13/12 A2996 RMK A01 T01270122  RH  097%=      5-min Rain = 0
KWT1 240852Z 01008KT 13/12 A2996 RMK A01 T01270122  RH  097%=      5-min Rain = 0
KWT1 240853Z 02010KT 13/12 A2996 RMK A01 T01270122  RH  097%=      5-min Rain = 0
KWT1 240854Z 01010KT 13/12 A2996 RMK A01 T01270122  RH  097%=      5-min Rain = 0
KWT1 240855Z 02007KT 13/12 A2996 RMK A01 T01270122  RH  096%=      5-min Rain = 0
KWT1 240856Z 02008KT 13/12 A2996 RMK A01 T01270122  RH  096%=      5-min Rain = 0
KWT1 240857Z 01010KT 13/12 A2996 RMK A01 T01270122  RH  096%=      5-min Rain = 0
KWT1 240858Z 02008KT 13/12 A2996 RMK A01 T01270122  RH  096%=      5-min Rain = 0
KWT1 240859Z 02008KT 13/12 A2997 RMK A01 T01270121  RH  096%=      5-min Rain = 0
KWT1 240900Z 01009KT 13/12 A2997 RMK A01 T01270121  RH  096%=      5-min Rain = 0
KWT1 240901Z 02009KT 13/12 A2997 RMK A01 T01280121  RH  096%=      5-min Rain = 0
KWT1 240902Z 02008KT 13/12 A2997 RMK A01 T01280122  RH  096%=      5-min Rain = 0
KWT1 240903Z 02007KT 13/12 A2997 RMK A01 T01280122  RH  096%=      5-min Rain = 0
KWT1 240904Z 02008KT 13/12 A2997 RMK A01 T01280122  RH  096%=      5-min Rain = 0
KWT1 240905Z 02009KT 13/12 A2997 RMK A01 T01280122  RH  096%=      5-min Rain = 0
KWT1 240906Z 03009KT 13/12 A2997 RMK A01 T01280122  RH  096%=      5-min Rain = 0
KWT1 240907Z 02008KT 13/12 A2997 RMK A01 T01280122  RH  096%=      5-min Rain = 0
KWT1 240908Z 02008KT 13/12 A2997 RMK A01 T01280122  RH  096%=      5-min Rain = 0
KWT1 240909Z 02008KT 13/12 A2997 RMK A01 T01280122  RH  096%=      5-min Rain = 0
KWT1 240910Z 02007KT 13/12 A2997 RMK A01 T01280122  RH  096%=      5-min Rain = 0
KWT1 240911Z 02009KT 13/12 A2997 RMK A01 T01280122  RH  096%=      5-min Rain = 0
KWT1 240912Z 03012KT 13/12 A2997 RMK A01 T01280122  RH  096%=      5-min Rain = 0
KWT1 240913Z 02012KT 13/12 A2997 RMK A01 T01280122  RH  096%=      5-min Rain = 0
KWT1 240914Z 02011KT 13/12 A2997 RMK A01 T01280121  RH  096%=      5-min Rain = 0
KWT1 240915Z 02012KT 13/12 A2997 RMK A01 T01280121  RH  095%=      5-min Rain = 0
KWT1 240916Z 03010KT 13/12 A2997 RMK A01 T01280121  RH  095%=      5-min Rain = 0
KWT1 240917Z 02010KT 13/12 A2997 RMK A01 T01280121  RH  095%=      5-min Rain = 0
KWT1 240918Z 02009KT 13/12 A2997 RMK A01 T01280121  RH  095%=      5-min Rain = 0
KWT1 240919Z 01007KT 13/12 A2997 RMK A01 T01280121  RH  095%=      5-min Rain = 0
KWT1 240920Z 03009KT 13/12 A2997 RMK A01 T01280121  RH  095%=      5-min Rain = 0
KWT1 240921Z 03009KT 13/12 A2997 RMK A01 T01280122  RH  096%=      5-min Rain = 0
KWT1 240922Z 02007KT 13/12 A2997 RMK A01 T01280121  RH  096%=      5-min Rain = 0
KWT1 240923Z 02007KT 13/12 A2997 RMK A01 T01280122  RH  096%=      5-min Rain = 0
KWT1 240924Z 02008KT 13/12 A2997 RMK A01 T01280122  RH  096%=      5-min Rain = 0
KWT1 240925Z 02008KT 13/12 A2997 RMK A01 T01290122  RH  096%=      5-min Rain = 0
KWT1 240926Z 02009KT 13/12 A2997 RMK A01 T01290122  RH  096%=      5-min Rain = 0
KWT1 240927Z 03008KT 13/12 A2997 RMK A01 T01290122  RH  096%=      5-min Rain = 0
KWT1 240928Z 02007KT 13/12 A2997 RMK A01 T01280122  RH  096%=      5-min Rain = 0
KWT1 240929Z 02009KT 13/12 A2997 RMK A01 T01280122  RH  096%=      5-min Rain = 0
KWT1 240930Z 02008KT 13/12 A2997 RMK A01 T01280122  RH  096%=      5-min Rain = 0
KWT1 240931Z 02009KT 13/12 A2997 RMK A01 T01280122  RH  096%=      5-min Rain = 0
KWT1 240932Z 02009KT 13/12 A2997 RMK A01 T01280122  RH  096%=      5-min Rain = 0
KWT1 240933Z 02010KT 13/12 A2997 RMK A01 T01280122  RH  096%=      5-min Rain = 0
KWT1 240934Z 01010KT 13/12 A2997 RMK A01 T01280122  RH  096%=      5-min Rain = 0
KWT1 240935Z 02009KT 13/12 A2997 RMK A01 T01280122  RH  096%=      5-min Rain = 0
KWT1 240936Z 02011KT 13/12 A2997 RMK A01 T01280122  RH  096%=      5-min Rain = 0
KWT1 240937Z 02008KT 13/12 A2997 RMK A01 T01280122  RH  096%=      5-min Rain = 0
KWT1 240938Z 02010KT 13/12 A2997 RMK A01 T01280122  RH  096%=      5-min Rain = 0
KWT1 240939Z 02010KT 13/12 A2997 RMK A01 T01280122  RH  096%=      5-min Rain = 0
KWT1 240940Z 01009KT 13/12 A2997 RMK A01 T01280122  RH  096%=      5-min Rain = 0
KWT1 240941Z 02010KT 13/12 A2997 RMK A01 T01280122  RH  096%=      5-min Rain = 0
KWT1 240942Z 02009KT 13/12 A2997 RMK A01 T01280122  RH  096%=      5-min Rain = 0
KWT1 240943Z 02009KT 13/12 A2997 RMK A01 T01280122  RH  096%=      5-min Rain = 0
KWT1 240944Z 02010KT 13/12 A2996 RMK A01 T01280122  RH  096%=      5-min Rain = 0
KWT1 240945Z 02009KT 13/12 A2996 RMK A01 T01280122  RH  096%=      5-min Rain = 0
KWT1 240946Z 03010KT 13/12 A2996 RMK A01 T01280122  RH  096%=      5-min Rain = 0
KWT1 240947Z 02008KT 13/12 A2996 RMK A01 T01280122  RH  096%=      5-min Rain = 0
KWT1 240948Z 03008KT 13/12 A2996 RMK A01 T01280122  RH  096%=      5-min Rain = 0
KWT1 240949Z 03008KT 13/12 A2996 RMK A01 T01280122  RH  096%=      5-min Rain = 0
KWT1 240950Z 02008KT 13/12 A2997 RMK A01 T01280122  RH  096%=      5-min Rain = 0
KWT1 240951Z 03008KT 13/12 A2997 RMK A01 T01280122  RH  096%=      5-min Rain = 0
KWT1 240952Z 02008KT 13/12 A2997 RMK A01 T01280122  RH  096%=      5-min Rain = 0
KWT1 240953Z 02008KT 13/12 A2997 RMK A01 T01280122  RH  096%=      5-min Rain = 0
KWT1 240954Z 03008KT 13/12 A2997 RMK A01 T01280122  RH  096%=      5-min Rain = 0
KWT1 240955Z 03008KT 13/12 A2996 RMK A01 T01280122  RH  096%=      5-min Rain = 0
KWT1 240956Z 02010KT 13/12 A2996 RMK A01 T01280122  RH  096%=      5-min Rain = 0
KWT1 240957Z 03007KT 13/12 A2996 RMK A01 T01280122  RH  096%=      5-min Rain = 0
KWT1 240958Z 02008KT 13/12 A2996 RMK A01 T01280122  RH  096%=      5-min Rain = 0
KWT1 240959Z 02008KT 13/12 A2996 RMK A01 T01280121  RH  096%=      5-min Rain = 0
KWT1 241000Z 01011KT 13/12 A2996 RMK A01 T01280121  RH  096%=      5-min Rain = 0
KWT1 241001Z 02010KT 13/12 A2996 RMK A01 T01280121  RH  095%=      5-min Rain = 0
KWT1 241002Z 02010KT 13/12 A2997 RMK A01 T01280121  RH  095%=      5-min Rain = 0
KWT1 241003Z 02010KT 13/12 A2997 RMK A01 T01280121  RH  095%=      5-min Rain = 0
KWT1 241004Z 01007KT 13/12 A2997 RMK A01 T01280121  RH  095%=      5-min Rain = 0
KWT1 241005Z 01008KT 13/12 A2997 RMK A01 T01280121  RH  096%=      5-min Rain = 0
KWT1 241006Z 02007KT 13/12 A2997 RMK A01 T01280121  RH  096%=      5-min Rain = 0
KWT1 241007Z 02008KT 13/12 A2997 RMK A01 T01280121  RH  096%=      5-min Rain = 0
KWT1 241008Z 02008KT 13/12 A2997 RMK A01 T01280121  RH  096%=      5-min Rain = 0
KWT1 241009Z 01008KT 13/12 A2997 RMK A01 T01280122  RH  096%=      5-min Rain = 0
KWT1 241010Z 02009KT 13/12 A2996 RMK A01 T01280121  RH  096%=      5-min Rain = 0
KWT1 241011Z 01009KT 13/12 A2996 RMK A01 T01280121  RH  096%=      5-min Rain = 0
KWT1 241012Z 01011KT 13/12 A2996 RMK A01 T01280121  RH  096%=      5-min Rain = 0
KWT1 241013Z 01011KT 13/12 A2996 RMK A01 T01280122  RH  096%=      5-min Rain = 0
KWT1 241014Z 01010KT 13/12 A2996 RMK A01 T01280122  RH  096%=      5-min Rain = 0
KWT1 241015Z 01010KT 13/12 A2996 RMK A01 T01280121  RH  096%=      5-min Rain = 0
KWT1 241016Z 01010KT 13/12 A2996 RMK A01 T01280122  RH  096%=      5-min Rain = 0
KWT1 241017Z 02009KT 13/12 A2996 RMK A01 T01280122  RH  096%=      5-min Rain = 0
KWT1 241018Z 02009KT 13/12 A2995 RMK A01 T01280122  RH  096%=      5-min Rain = 0
KWT1 241019Z 02010KT 13/12 A2995 RMK A01 T01280122  RH  096%=      5-min Rain = 0
KWT1 241020Z 02008KT 13/12 A2995 RMK A01 T01280122  RH  096%=      5-min Rain = 0
KWT1 241021Z 02009KT 13/12 A2995 RMK A01 T01280122  RH  096%=      5-min Rain = 0
KWT1 241022Z 02009KT 13/12 A2995 RMK A01 T01280121  RH  096%=      5-min Rain = 0
KWT1 241023Z 01010KT 13/12 A2995 RMK A01 T01280121  RH  096%=      5-min Rain = 0
KWT1 241024Z 01011KT 13/12 A2995 RMK A01 T01270121  RH  096%=      5-min Rain = 0
KWT1 241025Z 02010KT 13/12 A2995 RMK A01 T01270121  RH  096%=      5-min Rain = 0
KWT1 241026Z 02009KT 13/12 A2995 RMK A01 T01270121  RH  096%=      5-min Rain = 0
KWT1 241027Z 02009KT 13/12 A2995 RMK A01 T01270121  RH  096%=      5-min Rain = 0
KWT1 241028Z 02009KT 13/12 A2995 RMK A01 T01280121  RH  096%=      5-min Rain = 0
KWT1 241029Z 02007KT 13/12 A2995 RMK A01 T01280121  RH  096%=      5-min Rain = 0
KWT1 241030Z 02008KT 13/12 A2995 RMK A01 T01270121  RH  096%=      5-min Rain = 0
KWT1 241031Z 03008KT 13/12 A2995 RMK A01 T01270121  RH  096%=      5-min Rain = 0
KWT1 241032Z 03007KT 13/12 A2995 RMK A01 T01270121  RH  096%=      5-min Rain = 0
KWT1 241033Z 02010KT 13/12 A2995 RMK A01 T01280121  RH  096%=      5-min Rain = 0
KWT1 241034Z 03009KT 13/12 A2995 RMK A01 T01280120  RH  095%=      5-min Rain = 0
KWT1 241035Z 03009KT 13/12 A2996 RMK A01 T01270120  RH  095%=      5-min Rain = 0
KWT1 241036Z 03009KT 13/12 A2996 RMK A01 T01270120  RH  095%=      5-min Rain = 0
KWT1 241037Z 03008KT 13/12 A2996 RMK A01 T01270119  RH  095%=      5-min Rain = 0
KWT1 241038Z 02007KT 13/12 A2996 RMK A01 T01280120  RH  095%=      5-min Rain = 0
KWT1 241039Z 03009KT 13/12 A2996 RMK A01 T01280120  RH  095%=      5-min Rain = 0
KWT1 241040Z 03009KT 13/12 A2996 RMK A01 T01280119  RH  095%=      5-min Rain = 0
KWT1 241041Z 02008KT 13/12 A2996 RMK A01 T01280120  RH  095%=      5-min Rain = 0
KWT1 241042Z 02008KT 13/12 A2996 RMK A01 T01270120  RH  095%=      5-min Rain = 0
KWT1 241043Z 03009KT 13/12 A2996 RMK A01 T01270120  RH  095%=      5-min Rain = 0
KWT1 241044Z 03010KT 13/12 A2996 RMK A01 T01270120  RH  095%=      5-min Rain = 0
KWT1 241045Z 03008KT 13/12 A2996 RMK A01 T01270120  RH  095%=      5-min Rain = 0
KWT1 241046Z 04008KT 13/12 A2996 RMK A01 T01280120  RH  095%=      5-min Rain = 0
KWT1 241047Z 04007KT 13/12 A2997 RMK A01 T01280120  RH  095%=      5-min Rain = 0
KWT1 241048Z 03006KT 13/12 A2997 RMK A01 T01270121  RH  096%=      5-min Rain = 0
KWT1 241049Z 02007KT 13/12 A2997 RMK A01 T01270121  RH  096%=      5-min Rain = 0
KWT1 241050Z 04007KT 13/12 A2997 RMK A01 T01270121  RH  096%=      5-min Rain = 0
KWT1 241051Z 03008KT 13/12 A2996 RMK A01 T01270121  RH  096%=      5-min Rain = 0
KWT1 241052Z 03009KT 13/12 A2996 RMK A01 T01270121  RH  096%=      5-min Rain = 0
KWT1 241053Z 02010KT 13/12 A2996 RMK A01 T01280121  RH  096%=      5-min Rain = 0
KWT1 241054Z 03010KT 13/12 A2996 RMK A01 T01270120  RH  096%=      5-min Rain = 0
KWT1 241055Z 03008KT 13/12 A2996 RMK A01 T01270120  RH  096%=      5-min Rain = 0
KWT1 241056Z 03008KT 13/12 A2995 RMK A01 T01270121  RH  096%=      5-min Rain = 0
KWT1 241057Z 03010KT 13/12 A2995 RMK A01 T01270121  RH  096%=      5-min Rain = 0
KWT1 241058Z 03009KT 13/12 A2995 RMK A01 T01270120  RH  096%=      5-min Rain = 0
KWT1 241059Z 03009KT 13/12 A2996 RMK A01 T01260119  RH  095%=      5-min Rain = 0
KWT1 241100Z 04008KT 13/12 A2996 RMK A01 T01260119  RH  095%=      5-min Rain = 0
KWT1 241101Z 03008KT 13/12 A2996 RMK A01 T01270119  RH  095%=      5-min Rain = 0
KWT1 241102Z 03007KT 13/12 A2996 RMK A01 T01270119  RH  095%=      5-min Rain = 0
KWT1 241103Z 03007KT 13/12 A2996 RMK A01 T01260119  RH  095%=      5-min Rain = 0
KWT1 241104Z 03008KT 13/12 A2996 RMK A01 T01270119  RH  095%=      5-min Rain = 0
KWT1 241105Z 03008KT 13/12 A2996 RMK A01 T01260119  RH  095%=      5-min Rain = 0
KWT1 241106Z 03007KT 13/12 A2996 RMK A01 T01270119  RH  095%=      5-min Rain = 0
KWT1 241107Z 03007KT 13/12 A2996 RMK A01 T01270119  RH  095%=      5-min Rain = 0
KWT1 241108Z 03008KT 13/12 A2996 RMK A01 T01270119  RH  095%=      5-min Rain = 0
KWT1 241109Z 03009KT 13/12 A2996 RMK A01 T01270119  RH  095%=      5-min Rain = 0
KWT1 241110Z 04008KT 13/12 A2996 RMK A01 T01270118  RH  095%=      5-min Rain = 0
KWT1 241111Z 02008KT 13/12 A2996 RMK A01 T01270119  RH  095%=      5-min Rain = 0
KWT1 241112Z 03009KT 13/12 A2996 RMK A01 T01270118  RH  095%=      5-min Rain = 0
KWT1 241113Z 04010KT 13/12 A2996 RMK A01 T01270118  RH  094%=      5-min Rain = 0
KWT1 241114Z 03009KT 13/12 A2996 RMK A01 T01270118  RH  094%=      5-min Rain = 0
KWT1 241115Z 03008KT 13/12 A2996 RMK A01 T01270118  RH  094%=      5-min Rain = 0
KWT1 241116Z 03008KT 13/12 A2996 RMK A01 T01270119  RH  095%=      5-min Rain = 0
KWT1 241117Z 03008KT 13/12 A2996 RMK A01 T01270119  RH  095%=      5-min Rain = 0
KWT1 241118Z 03007KT 13/12 A2996 RMK A01 T01270119  RH  095%=      5-min Rain = 0
KWT1 241119Z 03008KT 13/12 A2996 RMK A01 T01270119  RH  095%=      5-min Rain = 0
KWT1 241120Z 03008KT 13/12 A2996 RMK A01 T01270119  RH  095%=      5-min Rain = 0
KWT1 241121Z 03007KT 13/12 A2996 RMK A01 T01270119  RH  095%=      5-min Rain = 0
KWT1 241122Z 03009KT 13/12 A2996 RMK A01 T01270119  RH  095%=      5-min Rain = 0
KWT1 241123Z 03009KT 13/12 A2996 RMK A01 T01270119  RH  095%=      5-min Rain = 0
KWT1 241124Z 03009KT 13/12 A2996 RMK A01 T01270119  RH  095%=      5-min Rain = 0
KWT1 241125Z 03008KT 13/12 A2996 RMK A01 T01270119  RH  095%=      5-min Rain = 0
KWT1 241126Z 03006KT 13/12 A2995 RMK A01 T01270119  RH  095%=      5-min Rain = 0
KWT1 241127Z 03007KT 13/12 A2995 RMK A01 T01260119  RH  095%=      5-min Rain = 0
KWT1 241128Z 03008KT 13/12 A2995 RMK A01 T01270119  RH  095%=      5-min Rain = 0
KWT1 241129Z 03009KT 13/12 A2995 RMK A01 T01270119  RH  095%=      5-min Rain = 0
KWT1 241130Z 03007KT 13/12 A2995 RMK A01 T01270119  RH  095%=      5-min Rain = 0
KWT1 241131Z 03008KT 13/12 A2995 RMK A01 T01260119  RH  095%=      5-min Rain = 0
KWT1 241132Z 02008KT 13/12 A2995 RMK A01 T01260119  RH  095%=      5-min Rain = 0
KWT1 241133Z 02008KT 13/12 A2995 RMK A01 T01260119  RH  095%=      5-min Rain = 0
KWT1 241134Z 02007KT 13/12 A2995 RMK A01 T01260119  RH  095%=      5-min Rain = 0
KWT1 241135Z 03007KT 13/12 A2995 RMK A01 T01260118  RH  095%=      5-min Rain = 0
KWT1 241136Z 03008KT 13/12 A2995 RMK A01 T01260118  RH  095%=      5-min Rain = 0
KWT1 241137Z 03006KT 13/12 A2996 RMK A01 T01260118  RH  095%=      5-min Rain = 0
KWT1 241138Z 03008KT 13/12 A2996 RMK A01 T01260118  RH  095%=      5-min Rain = 0
KWT1 241139Z 02008KT 13/12 A2996 RMK A01 T01260118  RH  095%=      5-min Rain = 0
KWT1 241140Z 03008KT 13/12 A2996 RMK A01 T01260118  RH  095%=      5-min Rain = 0
KWT1 241141Z 02007KT 13/12 A2996 RMK A01 T01260118  RH  095%=      5-min Rain = 0
KWT1 241142Z 02006KT 13/12 A2996 RMK A01 T01260118  RH  095%=      5-min Rain = 0
KWT1 241143Z 03007KT 13/12 A2996 RMK A01 T01260118  RH  095%=      5-min Rain = 0
KWT1 241144Z 02006KT 13/12 A2996 RMK A01 T01260118  RH  095%=      5-min Rain = 0
KWT1 241145Z 02006KT 13/12 A2996 RMK A01 T01260118  RH  095%=      5-min Rain = 0
KWT1 241146Z 03007KT 13/12 A2996 RMK A01 T01260118  RH  095%=      5-min Rain = 0
KWT1 241147Z 03007KT 13/12 A2995 RMK A01 T01260118  RH  095%=      5-min Rain = 0
KWT1 241148Z 03008KT 13/12 A2995 RMK A01 T01260118  RH  095%=      5-min Rain = 0
KWT1 241149Z 02007KT 13/12 A2995 RMK A01 T01260118  RH  095%=      5-min Rain = 0
KWT1 241150Z 03008KT 13/12 A2995 RMK A01 T01260118  RH  095%=      5-min Rain = 0
KWT1 241151Z 03008KT 13/12 A2995 RMK A01 T01260118  RH  095%=      5-min Rain = 0
KWT1 241152Z 03008KT 13/12 A2995 RMK A01 T01260118  RH  095%=      5-min Rain = 0
KWT1 241153Z 02007KT 13/12 A2995 RMK A01 T01260118  RH  095%=      5-min Rain = 0
KWT1 241154Z 03008KT 13/12 A2995 RMK A01 T01260118  RH  095%=      5-min Rain = 0
KWT1 241155Z 02007KT 13/12 A2995 RMK A01 T01260119  RH  095%=      5-min Rain = 0
KWT1 241156Z 03007KT 13/12 A2995 RMK A01 T01260119  RH  095%=      5-min Rain = 0
KWT1 241157Z 03007KT 13/12 A2995 RMK A01 T01260119  RH  095%=      5-min Rain = 0
KWT1 241158Z 03008KT 13/12 A2995 RMK A01 T01260118  RH  095%=      5-min Rain = 0
KWT1 241159Z 03009KT 13/12 A2995 RMK A01 T01260118  RH  095%=      5-min Rain = 0
KWT1 241200Z 03009KT 13/12 A2995 RMK A01 T01260118  RH  095%=      5-min Rain = 0
KWT1 241201Z 03010KT 13/12 A2995 RMK A01 T01260118  RH  095%=      5-min Rain = 0
KWT1 241202Z 03010KT 13/12 A2995 RMK A01 T01250117  RH  095%=      5-min Rain = 0
KWT1 241203Z 02010KT 13/12 A2995 RMK A01 T01260117  RH  095%=      5-min Rain = 0
KWT1 241204Z 03011KT 13/12 A2995 RMK A01 T01260118  RH  095%=      5-min Rain = 0
KWT1 241205Z 02009KT 13/12 A2995 RMK A01 T01250117  RH  095%=      5-min Rain = 0
KWT1 241206Z 02008KT 13/12 A2995 RMK A01 T01260117  RH  094%=      5-min Rain = 0
KWT1 241207Z 03008KT 13/12 A2995 RMK A01 T01250117  RH  095%=      5-min Rain = 0
KWT1 241208Z 02010KT 13/12 A2995 RMK A01 T01260117  RH  095%=      5-min Rain = 0
KWT1 241209Z 02009KT 13/12 A2995 RMK A01 T01260117  RH  095%=      5-min Rain = 0
KWT1 241210Z 02009KT 13/12 A2995 RMK A01 T01250117  RH  095%=      5-min Rain = 0
KWT1 241211Z 02008KT 13/12 A2995 RMK A01 T01260117  RH  095%=      5-min Rain = 0
KWT1 241212Z 01009KT 13/12 A2995 RMK A01 T01260117  RH  095%=      5-min Rain = 0
KWT1 241213Z 01009KT 13/12 A2995 RMK A01 T01260117  RH  095%=      5-min Rain = 0
KWT1 241214Z 03008KT 13/12 A2995 RMK A01 T01260118  RH  095%=      5-min Rain = 0
KWT1 241215Z 03008KT 13/12 A2995 RMK A01 T01260118  RH  095%=      5-min Rain = 0
KWT1 241216Z 02008KT 13/12 A2995 RMK A01 T01260117  RH  095%=      5-min Rain = 0
KWT1 241217Z 01007KT 13/12 A2995 RMK A01 T01260118  RH  095%=      5-min Rain = 0
KWT1 241218Z 01007KT 13/12 A2995 RMK A01 T01260118  RH  095%=      5-min Rain = 0
KWT1 241219Z 02006KT 13/12 A2995 RMK A01 T01260118  RH  095%=      5-min Rain = 0
KWT1 241220Z 01008KT 13/12 A2995 RMK A01 T01260118  RH  095%=      5-min Rain = 0
KWT1 241221Z 01008KT 13/12 A2995 RMK A01 T01260118  RH  095%=      5-min Rain = 0
KWT1 241222Z 02008KT 13/12 A2996 RMK A01 T01260118  RH  095%=      5-min Rain = 0
KWT1 241223Z 01007KT 13/12 A2996 RMK A01 T01260118  RH  095%=      5-min Rain = 0
KWT1 241224Z 02006KT 13/12 A2996 RMK A01 T01260119  RH  095%=      5-min Rain = 0
KWT1 241225Z 02007KT 13/12 A2996 RMK A01 T01260119  RH  095%=      5-min Rain = 0
KWT1 241226Z 03008KT 13/12 A2996 RMK A01 T01250118  RH  095%=      5-min Rain = 0
KWT1 241227Z 03009KT 13/12 A2995 RMK A01 T01260118  RH  095%=      5-min Rain = 0
KWT1 241228Z 02006KT 13/12 A2995 RMK A01 T01260119  RH  095%=      5-min Rain = 0
KWT1 241229Z 02008KT 13/12 A2995 RMK A01 T01250118  RH  095%=      5-min Rain = 0
KWT1 241230Z 02008KT 13/12 A2995 RMK A01 T01260118  RH  095%=      5-min Rain = 0
KWT1 241231Z 03007KT 13/12 A2995 RMK A01 T01260118  RH  095%=      5-min Rain = 0
KWT1 241232Z 03006KT 13/12 A2995 RMK A01 T01260118  RH  095%=      5-min Rain = 0
KWT1 241233Z 02006KT 13/12 A2995 RMK A01 T01260118  RH  095%=      5-min Rain = 0
KWT1 241234Z 02007KT 13/12 A2995 RMK A01 T01260119  RH  095%=      5-min Rain = 0
KWT1 241235Z 02008KT 13/12 A2996 RMK A01 T01260118  RH  095%=      5-min Rain = 0
KWT1 241236Z 02010KT 13/12 A2996 RMK A01 T01260118  RH  095%=      5-min Rain = 0
KWT1 241237Z 02011KT 13/12 A2996 RMK A01 T01260117  RH  095%=      5-min Rain = 0
KWT1 241238Z 02010KT 13/12 A2996 RMK A01 T01260117  RH  094%=      5-min Rain = 0
KWT1 241239Z 02008KT 13/12 A2996 RMK A01 T01260117  RH  094%=      5-min Rain = 0
KWT1 241240Z 02010KT 13/12 A2996 RMK A01 T01260117  RH  094%=      5-min Rain = 0
KWT1 241241Z 01008KT 13/12 A2995 RMK A01 T01260117  RH  094%=      5-min Rain = 0
KWT1 241242Z 02009KT 13/12 A2995 RMK A01 T01260117  RH  094%=      5-min Rain = 0
KWT1 241243Z 01009KT 13/12 A2995 RMK A01 T01260117  RH  095%=      5-min Rain = 0
KWT1 241244Z 01010KT 13/12 A2995 RMK A01 T01260117  RH  095%=      5-min Rain = 0
KWT1 241245Z 01007KT 13/12 A2995 RMK A01 T01260117  RH  095%=      5-min Rain = 0
KWT1 241246Z 01008KT 13/12 A2996 RMK A01 T01260117  RH  095%=      5-min Rain = 0
KWT1 241247Z 01009KT 13/12 A2996 RMK A01 T01260117  RH  095%=      5-min Rain = 0
KWT1 241248Z 01009KT 13/12 A2996 RMK A01 T01260117  RH  095%=      5-min Rain = 0
KWT1 241249Z 01008KT 13/12 A2996 RMK A01 T01260117  RH  094%=      5-min Rain = 0
KWT1 241250Z 02007KT 13/12 A2996 RMK A01 T01260117  RH  094%=      5-min Rain = 0
KWT1 241251Z 02007KT 13/12 A2996 RMK A01 T01260117  RH  094%=      5-min Rain = 0
KWT1 241252Z 02010KT 13/12 A2996 RMK A01 T01260117  RH  094%=      5-min Rain = 0
KWT1 241253Z 02009KT 13/12 A2996 RMK A01 T01260117  RH  094%=      5-min Rain = 0
KWT1 241254Z 02009KT 13/12 A2996 RMK A01 T01260117  RH  094%=      5-min Rain = 0
KWT1 241255Z 01009KT 13/12 A2995 RMK A01 T01260117  RH  094%=      5-min Rain = 0
KWT1 241256Z 01010KT 13/12 A2995 RMK A01 T01260117  RH  094%=      5-min Rain = 0
KWT1 241257Z 01008KT 13/12 A2995 RMK A01 T01260117  RH  094%=      5-min Rain = 0
KWT1 241258Z 01007KT 13/12 A2995 RMK A01 T01260117  RH  095%=      5-min Rain = 0
KWT1 241259Z 00008KT 13/12 A2995 RMK A01 T01260117  RH  095%=      5-min Rain = 0
KWT1 241300Z 01008KT 13/12 A2995 RMK A01 T01260117  RH  095%=      5-min Rain = 0
KWT1 241301Z 01009KT 13/12 A2995 RMK A01 T01260118  RH  095%=      5-min Rain = 0
KWT1 241302Z 01008KT 13/12 A2995 RMK A01 T01250117  RH  095%=      5-min Rain = 0
KWT1 241303Z 01007KT 13/12 A2995 RMK A01 T01260117  RH  095%=      5-min Rain = 0
KWT1 241304Z 01007KT 13/12 A2995 RMK A01 T01260118  RH  095%=      5-min Rain = 0
KWT1 241305Z 01009KT 13/12 A2995 RMK A01 T01260118  RH  095%=      5-min Rain = 0
KWT1 241306Z 01010KT 13/12 A2995 RMK A01 T01260118  RH  095%=      5-min Rain = 0
KWT1 241307Z 01008KT 13/12 A2995 RMK A01 T01260117  RH  095%=      5-min Rain = 0
KWT1 241308Z 02008KT 13/12 A2995 RMK A01 T01260117  RH  095%=      5-min Rain = 0
KWT1 241309Z 01010KT 13/12 A2995 RMK A01 T01260117  RH  095%=      5-min Rain = 0
KWT1 241310Z 00011KT 13/12 A2995 RMK A01 T01250116  RH  094%=      5-min Rain = 0
KWT1 241311Z 01011KT 13/12 A2995 RMK A01 T01250116  RH  094%=      5-min Rain = 0
KWT1 241312Z 01010KT 13/12 A2995 RMK A01 T01250116  RH  094%=      5-min Rain = 0
KWT1 241313Z 01010KT 13/12 A2995 RMK A01 T01250116  RH  094%=      5-min Rain = 0
KWT1 241314Z 01009KT 13/12 A2995 RMK A01 T01250116  RH  094%=      5-min Rain = 0
KWT1 241315Z 00007KT 13/12 A2995 RMK A01 T01250116  RH  094%=      5-min Rain = 0
KWT1 241316Z 00007KT 13/12 A2995 RMK A01 T01260117  RH  094%=      5-min Rain = 0
KWT1 241317Z 00009KT 13/12 A2995 RMK A01 T01250117  RH  094%=      5-min Rain = 0
KWT1 241318Z 35010KT 13/12 A2995 RMK A01 T01260117  RH  094%=      5-min Rain = 0
KWT1 241319Z 35011KT 13/12 A2995 RMK A01 T01260117  RH  094%=      5-min Rain = 0
KWT1 241320Z 35009KT 13/12 A2996 RMK A01 T01260116  RH  094%=      5-min Rain = 0
KWT1 241321Z 00009KT 13/12 A2996 RMK A01 T01260116  RH  094%=      5-min Rain = 0
KWT1 241322Z 00009KT 13/12 A2996 RMK A01 T01260116  RH  094%=      5-min Rain = 0
KWT1 241323Z 36008KT 13/12 A2995 RMK A01 T01260116  RH  094%=      5-min Rain = 0
KWT1 241324Z 00006KT 13/12 A2995 RMK A01 T01260117  RH  094%=      5-min Rain = 0
KWT1 241325Z 01007KT 13/12 A2995 RMK A01 T01260117  RH  094%=      5-min Rain = 0
KWT1 241326Z 36008KT 13/12 A2996 RMK A01 T01260116  RH  094%=      5-min Rain = 0
KWT1 241327Z 00006KT 13/12 A2996 RMK A01 T01260116  RH  094%=      5-min Rain = 0
KWT1 241328Z 00007KT 13/12 A2996 RMK A01 T01260116  RH  094%=      5-min Rain = 0
KWT1 241329Z 01005KT 13/12 A2996 RMK A01 T01260116  RH  094%=      5-min Rain = 0
KWT1 241330Z 01007KT 13/12 A2996 RMK A01 T01260117  RH  094%=      5-min Rain = 0
KWT1 241331Z 01007KT 13/12 A2996 RMK A01 T01270117  RH  094%=      5-min Rain = 0
KWT1 241332Z 02007KT 13/12 A2996 RMK A01 T01270117  RH  094%=      5-min Rain = 0
KWT1 241333Z 02009KT 13/12 A2996 RMK A01 T01260116  RH  094%=      5-min Rain = 0
KWT1 241334Z 02010KT 13/12 A2995 RMK A01 T01260116  RH  093%=      5-min Rain = 0
KWT1 241335Z 01010KT 13/12 A2995 RMK A01 T01260115  RH  093%=      5-min Rain = 0
KWT1 241336Z 02008KT 13/12 A2995 RMK A01 T01260115  RH  093%=      5-min Rain = 0
KWT1 241337Z 02010KT 13/12 A2995 RMK A01 T01260115  RH  093%=      5-min Rain = 0
KWT1 241338Z 02010KT 13/12 A2995 RMK A01 T01260115  RH  093%=      5-min Rain = 0
KWT1 241339Z 01009KT 13/12 A2995 RMK A01 T01250115  RH  093%=      5-min Rain = 0
KWT1 241340Z 02008KT 13/12 A2995 RMK A01 T01260115  RH  093%=      5-min Rain = 0
KWT1 241341Z 03009KT 13/12 A2995 RMK A01 T01260116  RH  094%=      5-min Rain = 0
KWT1 241342Z 03007KT 13/12 A2995 RMK A01 T01250116  RH  094%=      5-min Rain = 0
KWT1 241343Z 03009KT 13/12 A2995 RMK A01 T01260116  RH  094%=      5-min Rain = 0
KWT1 241344Z 03009KT 13/12 A2994 RMK A01 T01260115  RH  093%=      5-min Rain = 0
KWT1 241345Z 03009KT 13/12 A2994 RMK A01 T01260115  RH  094%=      5-min Rain = 0
KWT1 241346Z 03012KT 13/12 A2994 RMK A01 T01260116  RH  093%=      5-min Rain = 0
KWT1 241347Z 02011KT 13/12 A2994 RMK A01 T01260115  RH  093%=      5-min Rain = 0
KWT1 241348Z 03011KT 13/12 A2994 RMK A01 T01260115  RH  093%=      5-min Rain = 0
KWT1 241349Z 03011KT 13/12 A2994 RMK A01 T01260115  RH  093%=      5-min Rain = 0
KWT1 241350Z 03011KT 13/12 A2994 RMK A01 T01260116  RH  094%=      5-min Rain = 0
KWT1 241351Z 03012KT 13/12 A2994 RMK A01 T01260115  RH  093%=      5-min Rain = 0
KWT1 241352Z 03012KT 13/12 A2994 RMK A01 T01260115  RH  093%=      5-min Rain = 0
KWT1 241353Z 02011KT 13/11 A2994 RMK A01 T01260114  RH  093%=      5-min Rain = 0
KWT1 241354Z 03011KT 13/11 A2994 RMK A01 T01260114  RH  093%=      5-min Rain = 0
KWT1 241355Z 03012KT 13/11 A2994 RMK A01 T01250114  RH  093%=      5-min Rain = 0
KWT1 241356Z 03011KT 13/11 A2994 RMK A01 T01260114  RH  093%=      5-min Rain = 0
KWT1 241357Z 03010KT 13/11 A2994 RMK A01 T01260114  RH  093%=      5-min Rain = 0
KWT1 241358Z 03010KT 13/12 A2994 RMK A01 T01260115  RH  093%=      5-min Rain = 0
KWT1 241359Z 03011KT 13/11 A2994 RMK A01 T01260114  RH  093%=      5-min Rain = 0
KWT1 241400Z 04013KT 13/11 A2994 RMK A01 T01260114  RH  093%=      5-min Rain = 0
KWT1 241401Z 04013KT 13/11 A2994 RMK A01 T01260114  RH  092%=      5-min Rain = 0
KWT1 241402Z 04012KT 13/11 A2994 RMK A01 T01260114  RH  092%=      5-min Rain = 0
KWT1 241403Z 04012KT 13/11 A2994 RMK A01 T01260114  RH  093%=      5-min Rain = 0
KWT1 241404Z 04010KT 13/12 A2994 RMK A01 T01260115  RH  093%=      5-min Rain = 0
KWT1 241405Z 04012KT 13/12 A2994 RMK A01 T01260115  RH  093%=      5-min Rain = 0
KWT1 241406Z 03012KT 13/11 A2994 RMK A01 T01260114  RH  093%=      5-min Rain = 0
KWT1 241407Z 04010KT 13/11 A2995 RMK A01 T01260114  RH  093%=      5-min Rain = 0
KWT1 241408Z 04012KT 13/12 A2994 RMK A01 T01260115  RH  093%=      5-min Rain = 0
KWT1 241409Z 04010KT 13/11 A2995 RMK A01 T01260114  RH  092%=      5-min Rain = 0
KWT1 241410Z 03010KT 13/11 A2995 RMK A01 T01260114  RH  092%=      5-min Rain = 0
KWT1 241411Z 03008KT 13/11 A2995 RMK A01 T01260114  RH  093%=      5-min Rain = 0
KWT1 241412Z 02011KT 13/11 A2995 RMK A01 T01260114  RH  092%=      5-min Rain = 0
KWT1 241413Z 03009KT 13/11 A2995 RMK A01 T01260114  RH  092%=      5-min Rain = 0
KWT1 241414Z 02008KT 13/12 A2995 RMK A01 T01260115  RH  093%=      5-min Rain = 0
KWT1 241415Z 02008KT 13/12 A2995 RMK A01 T01270115  RH  093%=      5-min Rain = 0
KWT1 241416Z 02006KT 13/12 A2995 RMK A01 T01270115  RH  093%=      5-min Rain = 0
KWT1 241417Z 02009KT 13/12 A2995 RMK A01 T01270115  RH  093%=      5-min Rain = 0
KWT1 241418Z 02007KT 13/12 A2995 RMK A01 T01270115  RH  092%=      5-min Rain = 0
KWT1 241419Z 03006KT 13/12 A2995 RMK A01 T01270115  RH  093%=      5-min Rain = 0
KWT1 241420Z 03007KT 13/12 A2995 RMK A01 T01270115  RH  093%=      5-min Rain = 0
KWT1 241421Z 02006KT 13/12 A2995 RMK A01 T01270116  RH  093%=      5-min Rain = 0
KWT1 241422Z 03005KT 13/12 A2995 RMK A01 T01280116  RH  093%=      5-min Rain = 0
KWT1 241423Z 02006KT 13/12 A2995 RMK A01 T01280117  RH  093%=      5-min Rain = 0
KWT1 241424Z 02009KT 13/12 A2995 RMK A01 T01280116  RH  093%=      5-min Rain = 0
KWT1 241425Z 01009KT 13/12 A2995 RMK A01 T01280115  RH  092%=      5-min Rain = 0
KWT1 241426Z 01008KT 13/12 A2995 RMK A01 T01280115  RH  092%=      5-min Rain = 0
KWT1 241427Z 00008KT 13/12 A2995 RMK A01 T01280115  RH  092%=      5-min Rain = 0
KWT1 241428Z 01010KT 13/12 A2995 RMK A01 T01280115  RH  092%=      5-min Rain = 0
KWT1 241429Z 00008KT 13/11 A2995 RMK A01 T01270114  RH  091%=      5-min Rain = 0
KWT1 241430Z 00008KT 13/11 A2995 RMK A01 T01280114  RH  092%=      5-min Rain = 0
KWT1 241431Z 00010KT 13/11 A2995 RMK A01 T01270114  RH  091%=      5-min Rain = 0
KWT1 241432Z 00009KT 13/11 A2995 RMK A01 T01270113  RH  091%=      5-min Rain = 0
KWT1 241433Z 00009KT 13/11 A2995 RMK A01 T01270114  RH  092%=      5-min Rain = 0
KWT1 241434Z 36009KT 13/11 A2995 RMK A01 T01270114  RH  092%=      5-min Rain = 0
KWT1 241435Z 36009KT 13/11 A2995 RMK A01 T01270114  RH  092%=      5-min Rain = 0
KWT1 241436Z 35007KT 13/11 A2995 RMK A01 T01270114  RH  092%=      5-min Rain = 0
KWT1 241437Z 34009KT 13/11 A2995 RMK A01 T01270114  RH  092%=      5-min Rain = 0
KWT1 241438Z 35009KT 13/12 A2995 RMK A01 T01270115  RH  092%=      5-min Rain = 0
KWT1 241439Z 36009KT 13/11 A2996 RMK A01 T01270114  RH  092%=      5-min Rain = 0
KWT1 241440Z 35009KT 13/11 A2996 RMK A01 T01260114  RH  092%=      5-min Rain = 0
KWT1 241441Z 35008KT 13/11 A2996 RMK A01 T01260113  RH  092%=      5-min Rain = 0
KWT1 241442Z 34008KT 13/11 A2996 RMK A01 T01260114  RH  092%=      5-min Rain = 0
KWT1 241443Z 34006KT 13/12 A2996 RMK A01 T01270115  RH  093%=      5-min Rain = 0
KWT1 241444Z 35008KT 13/12 A2996 RMK A01 T01270116  RH  093%=      5-min Rain = 0
KWT1 241445Z 36006KT 13/12 A2996 RMK A01 T01270115  RH  092%=      5-min Rain = 0
KWT1 241446Z 35007KT 13/11 A2996 RMK A01 T01270114  RH  092%=      5-min Rain = 0
KWT1 241447Z 34008KT 13/11 A2996 RMK A01 T01270114  RH  092%=      5-min Rain = 0
KWT1 241448Z 00007KT 13/11 A2996 RMK A01 T01270114  RH  092%=      5-min Rain = 0
KWT1 241449Z 00008KT 13/11 A2996 RMK A01 T01260113  RH  092%=      5-min Rain = 0
KWT1 241450Z 00008KT 13/11 A2996 RMK A01 T01260112  RH  091%=      5-min Rain = 0
KWT1 241451Z 36008KT 13/11 A2996 RMK A01 T01260112  RH  091%=      5-min Rain = 0
KWT1 241452Z 36008KT 13/11 A2996 RMK A01 T01260112  RH  091%=      5-min Rain = 0
KWT1 241453Z 34008KT 13/11 A2997 RMK A01 T01250111  RH  091%=      5-min Rain = 0
KWT1 241454Z 35008KT 13/11 A2997 RMK A01 T01250111  RH  091%=      5-min Rain = 0
KWT1 241455Z 35010KT 13/11 A2997 RMK A01 T01250111  RH  091%=      5-min Rain = 0
KWT1 241456Z 34008KT 13/11 A2997 RMK A01 T01250111  RH  091%=      5-min Rain = 0
KWT1 241457Z 34008KT 13/11 A2997 RMK A01 T01250111  RH  091%=      5-min Rain = 0
KWT1 241458Z 34008KT 13/11 A2997 RMK A01 T01250111  RH  091%=      5-min Rain = 0
KWT1 241459Z 35008KT 13/11 A2997 RMK A01 T01250111  RH  091%=      5-min Rain = 0
KWT1 241500Z 35008KT 13/11 A2997 RMK A01 T01250111  RH  091%=      5-min Rain = 0
KWT1 241501Z 34007KT 13/11 A2997 RMK A01 T01250112  RH  091%=      5-min Rain = 0
KWT1 241502Z 34009KT 13/11 A2997 RMK A01 T01260112  RH  091%=      5-min Rain = 0
KWT1 241503Z 34008KT 13/11 A2997 RMK A01 T01260110  RH  090%=      5-min Rain = 0
KWT1 241504Z 34007KT 13/11 A2997 RMK A01 T01250111  RH  091%=      5-min Rain = 0
KWT1 241505Z 34009KT 13/11 A2997 RMK A01 T01260111  RH  091%=      5-min Rain = 0
KWT1 241506Z 34010KT 13/11 A2997 RMK A01 T01260110  RH  090%=      5-min Rain = 0
KWT1 241507Z 34008KT 13/11 A2997 RMK A01 T01260110  RH  090%=      5-min Rain = 0
KWT1 241508Z 35009KT 13/11 A2997 RMK A01 T01260111  RH  090%=      5-min Rain = 0
KWT1 241509Z 36009KT 13/11 A2997 RMK A01 T01260110  RH  090%=      5-min Rain = 0
KWT1 241510Z 36007KT 13/11 A2997 RMK A01 T01250109  RH  090%=      5-min Rain = 0
KWT1 241511Z 35008KT 13/11 A2997 RMK A01 T01250109  RH  090%=      5-min Rain = 0
KWT1 241512Z 35007KT 13/11 A2997 RMK A01 T01250109  RH  090%=      5-min Rain = 0
KWT1 241513Z 35008KT 13/11 A2997 RMK A01 T01250109  RH  090%=      5-min Rain = 0
KWT1 241514Z 36008KT 13/11 A2997 RMK A01 T01250108  RH  089%=      5-min Rain = 0
KWT1 241515Z 35008KT 13/11 A2997 RMK A01 T01250108  RH  089%=      5-min Rain = 0
KWT1 241516Z 35008KT 13/11 A2997 RMK A01 T01250107  RH  089%=      5-min Rain = 0
KWT1 241517Z 34006KT 13/11 A2997 RMK A01 T01250108  RH  089%=      5-min Rain = 0
KWT1 241518Z 34007KT 13/11 A2997 RMK A01 T01260109  RH  089%=      5-min Rain = 0
KWT1 241519Z 35007KT 13/11 A2997 RMK A01 T01260108  RH  089%=      5-min Rain = 0
KWT1 241520Z 34007KT 13/11 A2997 RMK A01 T01260108  RH  089%=      5-min Rain = 0
KWT1 241521Z 34007KT 13/11 A2997 RMK A01 T01260107  RH  088%=      5-min Rain = 0
KWT1 241522Z 34007KT 13/11 A2998 RMK A01 T01260107  RH  088%=      5-min Rain = 0
KWT1 241523Z 34007KT 13/11 A2998 RMK A01 T01260107  RH  088%=      5-min Rain = 0
KWT1 241524Z 34006KT 13/11 A2998 RMK A01 T01260106  RH  088%=      5-min Rain = 0
KWT1 241525Z 35007KT 13/11 A2998 RMK A01 T01260108  RH  088%=      5-min Rain = 0
KWT1 241531Z 35005KT 13/11 A2998 RMK A01 T01270108  RH  088%=      5-min Rain = 0
KWT1 241532Z 35008KT 13/11 A2998 RMK A01 T01280108  RH  088%=      5-min Rain = 0
KWT1 241533Z 35007KT 13/11 A2997 RMK A01 T01270107  RH  087%=      5-min Rain = 0
KWT1 241534Z 35007KT 13/11 A2997 RMK A01 T01280109  RH  088%=      5-min Rain = 0
KWT1 241535Z 34008KT 13/11 A2997 RMK A01 T01280109  RH  088%=      5-min Rain = 0
KWT1 241536Z 34007KT 13/11 A2997 RMK A01 T01280108  RH  088%=      5-min Rain = 0
KWT1 241537Z 34008KT 13/11 A2997 RMK A01 T01290109  RH  088%=      5-min Rain = 0
KWT1 241538Z 34009KT 13/11 A2997 RMK A01 T01280108  RH  088%=      5-min Rain = 0
KWT1 241539Z 34009KT 13/11 A2997 RMK A01 T01280107  RH  087%=      5-min Rain = 0
KWT1 241540Z 34010KT 13/11 A2997 RMK A01 T01280108  RH  087%=      5-min Rain = 0
KWT1 241541Z 34009KT 13/11 A2997 RMK A01 T01280108  RH  087%=      5-min Rain = 0
KWT1 241542Z 35007KT 13/11 A2997 RMK A01 T01280108  RH  087%=      5-min Rain = 0
KWT1 241543Z 35007KT 13/11 A2997 RMK A01 T01290111  RH  089%=      5-min Rain = 0
KWT1 241544Z 34006KT 13/11 A2997 RMK A01 T01300110  RH  088%=      5-min Rain = 0
KWT1 241545Z 34006KT 13/11 A2996 RMK A01 T01310112  RH  089%=      5-min Rain = 0
KWT1 241546Z 35009KT 13/11 A2996 RMK A01 T01310112  RH  088%=      5-min Rain = 0
KWT1 241547Z 35010KT 13/11 A2996 RMK A01 T01310110  RH  087%=      5-min Rain = 0
KWT1 241548Z 35008KT 13/11 A2996 RMK A01 T01310109  RH  087%=      5-min Rain = 0
KWT1 241549Z 35007KT 13/11 A2996 RMK A01 T01310110  RH  087%=      5-min Rain = 0
KWT1 241550Z 35009KT 13/11 A2996 RMK A01 T01310110  RH  087%=      5-min Rain = 0
KWT1 241551Z 35008KT 13/11 A2996 RMK A01 T01310110  RH  087%=      5-min Rain = 0
KWT1 241552Z 35008KT 13/11 A2996 RMK A01 T01310110  RH  087%=      5-min Rain = 0
KWT1 241553Z 35010KT 13/11 A2996 RMK A01 T01310108  RH  086%=      5-min Rain = 0
KWT1 241554Z 35010KT 13/11 A2996 RMK A01 T01310106  RH  085%=      5-min Rain = 0
KWT1 241555Z 35011KT 13/11 A2996 RMK A01 T01310105  RH  084%=      5-min Rain = 0
KWT1 241556Z 35008KT 13/11 A2996 RMK A01 T01320107  RH  085%=      5-min Rain = 0
KWT1 241557Z 35008KT 13/11 A2996 RMK A01 T01330109  RH  086%=      5-min Rain = 0
KWT1 241558Z 35009KT 13/11 A2995 RMK A01 T01330107  RH  084%=      5-min Rain = 0
KWT1 241559Z 34010KT 13/11 A2995 RMK A01 T01330107  RH  085%=      5-min Rain = 0
KWT1 241600Z 35008KT 13/11 A2995 RMK A01 T01330108  RH  085%=      5-min Rain = 0
KWT1 241601Z 34009KT 13/11 A2995 RMK A01 T01340108  RH  085%=      5-min Rain = 0
KWT1 241602Z 34010KT 13/11 A2995 RMK A01 T01340106  RH  084%=      5-min Rain = 0
KWT1 241603Z 34008KT 13/11 A2995 RMK A01 T01330107  RH  084%=      5-min Rain = 0
KWT1 241604Z 33008KT 13/11 A2995 RMK A01 T01340108  RH  085%=      5-min Rain = 0
KWT1 241605Z 33008KT 13/11 A2995 RMK A01 T01330109  RH  085%=      5-min Rain = 0
KWT1 241606Z 34009KT 13/11 A2995 RMK A01 T01340110  RH  086%=      5-min Rain = 0
KWT1 241607Z 33009KT 13/11 A2995 RMK A01 T01340108  RH  084%=      5-min Rain = 0
KWT1 241608Z 34011KT 13/11 A2995 RMK A01 T01340108  RH  084%=      5-min Rain = 0
KWT1 241609Z 34011KT 13/10 A2995 RMK A01 T01330104  RH  083%=      5-min Rain = 0
KWT1 241610Z 34011KT 13/10 A2995 RMK A01 T01330104  RH  083%=      5-min Rain = 0
KWT1 241611Z 35011KT 13/10 A2996 RMK A01 T01320104  RH  083%=      5-min Rain = 0
KWT1 241612Z 34010KT 13/10 A2996 RMK A01 T01330104  RH  083%=      5-min Rain = 0
KWT1 241613Z 34008KT 13/10 A2996 RMK A01 T01320104  RH  083%=      5-min Rain = 0
KWT1 241614Z 34011KT 13/10 A2996 RMK A01 T01320104  RH  083%=      5-min Rain = 0
KWT1 241615Z 34008KT 13/10 A2997 RMK A01 T01330103  RH  082%=      5-min Rain = 0
KWT1 241616Z 35008KT 13/10 A2997 RMK A01 T01320103  RH  082%=      5-min Rain = 0
KWT1 241617Z 34006KT 13/10 A2997 RMK A01 T01330103  RH  082%=      5-min Rain = 0
KWT1 241618Z 34008KT 13/10 A2997 RMK A01 T01320102  RH  082%=      5-min Rain = 0
KWT1 241619Z 35007KT 13/10 A2998 RMK A01 T01320102  RH  082%=      5-min Rain = 0
KWT1 241620Z 36006KT 13/10 A2998 RMK A01 T01320103  RH  082%=      5-min Rain = 0
KWT1 241621Z 36005KT 13/10 A2998 RMK A01 T01330103  RH  082%=      5-min Rain = 0
KWT1 241622Z 36006KT 13/10 A2998 RMK A01 T01320102  RH  082%=      5-min Rain = 0
KWT1 241623Z 36005KT 13/10 A2998 RMK A01 T01330102  RH  082%=      5-min Rain = 0
KWT1 241624Z 33005KT 13/10 A2998 RMK A01 T01320102  RH  082%=      5-min Rain = 0
KWT1 241625Z 33005KT 13/10 A2998 RMK A01 T01320103  RH  082%=      5-min Rain = 0
KWT1 241626Z 33006KT 13/10 A2998 RMK A01 T01330104  RH  083%=      5-min Rain = 0
KWT1 241627Z 33005KT 13/10 A2998 RMK A01 T01330103  RH  082%=      5-min Rain = 0
KWT1 241628Z 33005KT 13/10 A2998 RMK A01 T01330103  RH  082%=      5-min Rain = 0
KWT1 241629Z 35007KT 13/11 A2998 RMK A01 T01330105  RH  083%=      5-min Rain = 0
KWT1 241630Z 36006KT 13/10 A2998 RMK A01 T01340104  RH  082%=      5-min Rain = 0
KWT1 241631Z 35008KT 13/10 A2998 RMK A01 T01330102  RH  082%=      5-min Rain = 0
KWT1 241632Z 35007KT 13/10 A2998 RMK A01 T01320103  RH  082%=      5-min Rain = 0
KWT1 241633Z 34007KT 13/10 A2999 RMK A01 T01330104  RH  083%=      5-min Rain = 0
KWT1 241634Z 35006KT 13/10 A2999 RMK A01 T01330104  RH  082%=      5-min Rain = 0
KWT1 241635Z 34005KT 13/10 A2999 RMK A01 T01330104  RH  082%=      5-min Rain = 0
KWT1 241636Z 35005KT 13/11 A2999 RMK A01 T01340106  RH  083%=      5-min Rain = 0
KWT1 241637Z 36004KT 14/11 A2999 RMK A01 T01350105  RH  082%=      5-min Rain = 0
KWT1 241638Z 35004KT 13/11 A2999 RMK A01 T01340105  RH  082%=      5-min Rain = 0
KWT1 241639Z 01003KT 14/11 A2999 RMK A01 T01350108  RH  083%=      5-min Rain = 0
KWT1 241640Z 01005KT 14/11 A2999 RMK A01 T01360108  RH  083%=      5-min Rain = 0
KWT1 241641Z 00006KT 14/11 A2999 RMK A01 T01360108  RH  083%=      5-min Rain = 0
KWT1 241642Z 01006KT 14/10 A2999 RMK A01 T01360104  RH  081%=      5-min Rain = 0
KWT1 241643Z 00005KT 14/11 A2999 RMK A01 T01360105  RH  081%=      5-min Rain = 0
KWT1 241644Z 36005KT 14/10 A2999 RMK A01 T01350103  RH  081%=      5-min Rain = 0
KWT1 241645Z 35006KT 13/10 A2999 RMK A01 T01340104  RH  082%=      5-min Rain = 0
KWT1 241646Z 00005KT 13/10 A2999 RMK A01 T01340103  RH  081%=      5-min Rain = 0
KWT1 241647Z 34006KT 13/10 A2999 RMK A01 T01340104  RH  082%=      5-min Rain = 0
KWT1 241648Z 35005KT 13/10 A2999 RMK A01 T01340103  RH  082%=      5-min Rain = 0
KWT1 241649Z 01004KT 13/10 A2999 RMK A01 T01340102  RH  081%=      5-min Rain = 0
KWT1 241650Z 01004KT 13/10 A2999 RMK A01 T01340104  RH  082%=      5-min Rain = 0
KWT1 241651Z 36004KT 13/10 A2999 RMK A01 T01340103  RH  082%=      5-min Rain = 0
KWT1 241652Z 35005KT 13/11 A2999 RMK A01 T01340106  RH  083%=      5-min Rain = 0
KWT1 241653Z 00005KT 14/11 A2999 RMK A01 T01350106  RH  083%=      5-min Rain = 0
KWT1 241654Z 01005KT 14/11 A2999 RMK A01 T01360106  RH  082%=      5-min Rain = 0
KWT1 241655Z 35005KT 14/11 A2999 RMK A01 T01360107  RH  083%=      5-min Rain = 0
KWT1 241656Z 35005KT 14/11 A2999 RMK A01 T01360106  RH  082%=      5-min Rain = 0
KWT1 241657Z 36006KT 14/11 A2999 RMK A01 T01360105  RH  081%=      5-min Rain = 0
KWT1 241658Z 35006KT 14/10 A2999 RMK A01 T01360104  RH  081%=      5-min Rain = 0
KWT1 241659Z 35006KT 14/10 A2999 RMK A01 T01360104  RH  081%=      5-min Rain = 0
KWT1 241700Z 35004KT 14/10 A30 RMK A01 T01360103  RH  081%=      5-min Rain = 0
KWT1 241701Z 35003KT 14/10 A30 RMK A01 T01360104  RH  081%=      5-min Rain = 0
KWT1 241702Z 34004KT 14/11 A30 RMK A01 T01370107  RH  082%=      5-min Rain = 0
KWT1 241703Z 34004KT 14/11 A30 RMK A01 T01370106  RH  082%=      5-min Rain = 0
KWT1 241704Z 36005KT 14/11 A30 RMK A01 T01380107  RH  081%=      5-min Rain = 0
KWT1 241705Z 00006KT 14/10 A30 RMK A01 T01380104  RH  080%=      5-min Rain = 0
KWT1 241706Z 01005KT 14/10 A30 RMK A01 T01380104  RH  080%=      5-min Rain = 0
KWT1 241707Z 01006KT 14/10 A30 RMK A01 T01370102  RH  079%=      5-min Rain = 0
KWT1 241708Z 00005KT 14/10 A30 RMK A01 T01370102  RH  079%=      5-min Rain = 0
KWT1 241709Z 01006KT 14/10 A30 RMK A01 T01370102  RH  079%=      5-min Rain = 0
KWT1 241710Z 01004KT 14/10 A30 RMK A01 T01370099  RH  078%=      5-min Rain = 0
KWT1 241711Z 01004KT 14/10 A30 RMK A01 T01360100  RH  079%=      5-min Rain = 0
KWT1 241712Z 01005KT 14/10 A30 RMK A01 T01370103  RH  080%=      5-min Rain = 0
KWT1 241713Z 01004KT 14/10 A30 RMK A01 T01370102  RH  079%=      5-min Rain = 0
KWT1 241714Z 02003KT 14/10 A30 RMK A01 T01370103  RH  080%=      5-min Rain = 0
KWT1 241715Z 01003KT 14/10 A3001 RMK A01 T01370102  RH  079%=      5-min Rain = 0
KWT1 241716Z 02001KT 14/10 A3001 RMK A01 T01370100  RH  078%=      5-min Rain = 0
KWT1 241717Z 02002KT 14/10 A3001 RMK A01 T01370099  RH  078%=      5-min Rain = 0
KWT1 241718Z 04002KT 14/10 A3001 RMK A01 T01370100  RH  078%=      5-min Rain = 0
KWT1 241719Z 04003KT 14/10 A3001 RMK A01 T01380101  RH  079%=      5-min Rain = 0
KWT1 241720Z 04002KT 14/10 A3001 RMK A01 T01370101  RH  078%=      5-min Rain = 0
KWT1 241721Z 36002KT 14/10 A3001 RMK A01 T01380101  RH  078%=      5-min Rain = 0
KWT1 241722Z 34004KT 14/10 A3001 RMK A01 T01380102  RH  079%=      5-min Rain = 0
KWT1 241723Z 34004KT 14/10 A3001 RMK A01 T01380101  RH  078%=      5-min Rain = 0
KWT1 241724Z 35004KT 14/10 A3001 RMK A01 T01380101  RH  079%=      5-min Rain = 0
KWT1 241725Z 36003KT 14/10 A3001 RMK A01 T01380101  RH  079%=      5-min Rain = 0
KWT1 241726Z 00003KT 14/10 A3001 RMK A01 T01380100  RH  078%=      5-min Rain = 0
KWT1 241727Z 35003KT 14/10 A3001 RMK A01 T01380102  RH  079%=      5-min Rain = 0
KWT1 241728Z 36002KT 14/10 A3001 RMK A01 T01370101  RH  078%=      5-min Rain = 0
KWT1 241729Z 34003KT 14/10 A3001 RMK A01 T01380100  RH  078%=      5-min Rain = 0
KWT1 241730Z 34002KT 14/10 A3001 RMK A01 T01380097  RH  077%=      5-min Rain = 0
KWT1 241731Z 34001KT 14/10 A3001 RMK A01 T01370097  RH  077%=      5-min Rain = 0
KWT1 241732Z 31000KT 14/10 A3001 RMK A01 T01370097  RH  077%=      5-min Rain = 0
KWT1 241733Z 32001KT 14/10 A3001 RMK A01 T01370102  RH  079%=      5-min Rain = 0
KWT1 241734Z 31001KT 14/10 A3001 RMK A01 T01380099  RH  077%=      5-min Rain = 0
KWT1 241735Z 31001KT 14/10 A3001 RMK A01 T01380098  RH  077%=      5-min Rain = 0
KWT1 241736Z 30001KT 14/10 A3001 RMK A01 T01380099  RH  077%=      5-min Rain = 0
KWT1 241737Z 29000KT 14/10 A3001 RMK A01 T01380097  RH  077%=      5-min Rain = 0
KWT1 241738Z 23000KT 14/10 A3001 RMK A01 T01380097  RH  076%=      5-min Rain = 0
KWT1 241739Z 23000KT 14/10 A3001 RMK A01 T01380100  RH  077%=      5-min Rain = 0
KWT1 241740Z 18000KT 14/10 A3001 RMK A01 T01390101  RH  078%=      5-min Rain = 0
KWT1 241741Z 00000KT 14/10 A3001 RMK A01 T01400100  RH  077%=      5-min Rain = 0
KWT1 241742Z 14001KT 14/10 A3001 RMK A01 T01400101  RH  077%=      5-min Rain = 0
KWT1 241743Z 12001KT 14/10 A3001 RMK A01 T01400102  RH  078%=      5-min Rain = 0
KWT1 241744Z 11001KT 14/10 A3001 RMK A01 T01400101  RH  077%=      5-min Rain = 0
KWT1 241745Z 14001KT 14/10 A3001 RMK A01 T01400100  RH  077%=      5-min Rain = 0
KWT1 241746Z 20001KT 14/10 A3001 RMK A01 T01400100  RH  076%=      5-min Rain = 0
KWT1 241747Z 19002KT 14/10 A3001 RMK A01 T01400098  RH  076%=      5-min Rain = 0
KWT1 241748Z 16002KT 14/10 A3001 RMK A01 T01400100  RH  077%=      5-min Rain = 0
KWT1 241749Z 16002KT 14/10 A3001 RMK A01 T01400101  RH  077%=      5-min Rain = 0
KWT1 241750Z 16002KT 14/10 A3001 RMK A01 T01400098  RH  076%=      5-min Rain = 0
KWT1 241751Z 16001KT 14/10 A3001 RMK A01 T01390097  RH  076%=      5-min Rain = 0
KWT1 241752Z 16001KT 14/10 A3001 RMK A01 T01390098  RH  076%=      5-min Rain = 0
KWT1 241753Z 19001KT 14/10 A3001 RMK A01 T01390099  RH  077%=      5-min Rain = 0
KWT1 241754Z 20002KT 14/10 A3001 RMK A01 T01390101  RH  078%=      5-min Rain = 0
KWT1 241755Z 21003KT 14/10 A3001 RMK A01 T01390101  RH  078%=      5-min Rain = 0
KWT1 241756Z 21002KT 14/10 A3001 RMK A01 T01390100  RH  077%=      5-min Rain = 0
KWT1 241757Z 21001KT 14/10 A3001 RMK A01 T01390100  RH  077%=      5-min Rain = 0
KWT1 241758Z 23002KT 14/10 A3001 RMK A01 T01380101  RH  078%=      5-min Rain = 0
KWT1 241759Z 21002KT 14/10 A3001 RMK A01 T01380102  RH  079%=      5-min Rain = 0
KWT1 241800Z 20001KT 14/10 A30 RMK A01 T01380101  RH  078%=      5-min Rain = 0
KWT1 241801Z 19001KT 14/10 A30 RMK A01 T01380100  RH  077%=      5-min Rain = 0
KWT1 241802Z 17001KT 14/10 A30 RMK A01 T01380100  RH  078%=      5-min Rain = 0
KWT1 241803Z 17001KT 14/10 A30 RMK A01 T01380100  RH  078%=      5-min Rain = 0
KWT1 241804Z 15001KT 14/10 A30 RMK A01 T01380100  RH  078%=      5-min Rain = 0
KWT1 241805Z 16001KT 14/10 A30 RMK A01 T01380101  RH  078%=      5-min Rain = 0
KWT1 241806Z 16000KT 14/10 A30 RMK A01 T01380100  RH  078%=      5-min Rain = 0
KWT1 241807Z 00000KT 14/10 A30 RMK A01 T01380102  RH  079%=      5-min Rain = 0
KWT1 241808Z 26001KT 14/10 A30 RMK A01 T01390101  RH  078%=      5-min Rain = 0
KWT1 241809Z 27001KT 14/10 A30 RMK A01 T01380102  RH  079%=      5-min Rain = 0
KWT1 241810Z 28001KT 14/10 A30 RMK A01 T01390100  RH  078%=      5-min Rain = 0
KWT1 241811Z 27001KT 14/10 A30 RMK A01 T01380102  RH  078%=      5-min Rain = 0
KWT1 241812Z 27001KT 14/10 A2999 RMK A01 T01390101  RH  078%=      5-min Rain = 0
KWT1 241813Z 25001KT 14/10 A2999 RMK A01 T01390101  RH  078%=      5-min Rain = 0
KWT1 241814Z 21000KT 14/10 A2999 RMK A01 T01380099  RH  077%=      5-min Rain = 0
KWT1 241815Z 25000KT 14/10 A2999 RMK A01 T01380100  RH  078%=      5-min Rain = 0
KWT1 241816Z 25002KT 14/10 A2999 RMK A01 T01380100  RH  077%=      5-min Rain = 0
KWT1 241817Z 27002KT 14/10 A2999 RMK A01 T01380101  RH  078%=      5-min Rain = 0
KWT1 241818Z 26002KT 14/10 A2999 RMK A01 T01390102  RH  078%=      5-min Rain = 0
KWT1 241819Z 27003KT 14/10 A2999 RMK A01 T01380101  RH  078%=      5-min Rain = 0
KWT1 241820Z 27002KT 14/10 A2999 RMK A01 T01380100  RH  078%=      5-min Rain = 0
KWT1 241821Z 28002KT 14/10 A2999 RMK A01 T01380100  RH  078%=      5-min Rain = 0
KWT1 241822Z 29002KT 14/10 A2999 RMK A01 T01380101  RH  078%=      5-min Rain = 0
KWT1 241823Z 30001KT 14/10 A2999 RMK A01 T01380100  RH  078%=      5-min Rain = 0
KWT1 241824Z 30001KT 14/10 A2998 RMK A01 T01380099  RH  077%=      5-min Rain = 0
KWT1 241825Z 29001KT 14/10 A2998 RMK A01 T01390103  RH  079%=      5-min Rain = 0
KWT1 241826Z 27001KT 14/11 A2998 RMK A01 T01400106  RH  080%=      5-min Rain = 0
KWT1 241827Z 29001KT 14/10 A2998 RMK A01 T01400103  RH  078%=      5-min Rain = 0
KWT1 241828Z 29004KT 14/11 A2998 RMK A01 T01410106  RH  079%=      5-min Rain = 0
KWT1 241829Z 29004KT 14/10 A2998 RMK A01 T01400104  RH  079%=      5-min Rain = 0
KWT1 241830Z 28003KT 14/11 A2998 RMK A01 T01400106  RH  079%=      5-min Rain = 0
KWT1 241831Z 27003KT 14/11 A2998 RMK A01 T01400105  RH  079%=      5-min Rain = 0
KWT1 241832Z 27003KT 14/10 A2998 RMK A01 T01400104  RH  079%=      5-min Rain = 0
KWT1 241833Z 29002KT 14/10 A2998 RMK A01 T01400103  RH  079%=      5-min Rain = 0
KWT1 241834Z 30003KT 14/10 A2998 RMK A01 T01400104  RH  079%=      5-min Rain = 0
KWT1 241835Z 32003KT 14/10 A2998 RMK A01 T01400103  RH  078%=      5-min Rain = 0
KWT1 241836Z 32004KT 14/10 A2998 RMK A01 T01400104  RH  079%=      5-min Rain = 0
KWT1 241837Z 33005KT 14/10 A2998 RMK A01 T01400104  RH  079%=      5-min Rain = 0
KWT1 241838Z 32004KT 14/10 A2998 RMK A01 T01400104  RH  079%=      5-min Rain = 0
KWT1 241839Z 31004KT 14/11 A2998 RMK A01 T01400105  RH  080%=      5-min Rain = 0
KWT1 241840Z 31004KT 14/10 A2998 RMK A01 T01400104  RH  079%=      5-min Rain = 0
KWT1 241841Z 31003KT 14/11 A2998 RMK A01 T01410105  RH  079%=      5-min Rain = 0
KWT1 241842Z 30003KT 14/10 A2998 RMK A01 T01400104  RH  079%=      5-min Rain = 0
KWT1 241843Z 27002KT 14/11 A2998 RMK A01 T01410108  RH  080%=      5-min Rain = 0
KWT1 241844Z 27002KT 14/11 A2998 RMK A01 T01420106  RH  079%=      5-min Rain = 0
KWT1 241845Z 26002KT 14/11 A2998 RMK A01 T01420106  RH  079%=      5-min Rain = 0
KWT1 241846Z 26001KT 14/11 A2998 RMK A01 T01430107  RH  079%=      5-min Rain = 0
KWT1 241847Z 28002KT 14/11 A2998 RMK A01 T01430108  RH  079%=      5-min Rain = 0
KWT1 241848Z 31004KT 14/11 A2998 RMK A01 T01430106  RH  078%=      5-min Rain = 0
KWT1 241849Z 29002KT 14/10 A2998 RMK A01 T01430103  RH  077%=      5-min Rain = 0
KWT1 241850Z 29002KT 14/10 A2998 RMK A01 T01420103  RH  077%=      5-min Rain = 0
KWT1 241851Z 32004KT 14/10 A2998 RMK A01 T01420104  RH  078%=      5-min Rain = 0
KWT1 241852Z 31004KT 14/11 A2998 RMK A01 T01430107  RH  079%=      5-min Rain = 0
KWT1 241853Z 32002KT 14/11 A2998 RMK A01 T01440108  RH  079%=      5-min Rain = 0
KWT1 241854Z 30001KT 14/10 A2998 RMK A01 T01440104  RH  077%=      5-min Rain = 0
KWT1 241855Z 31000KT 15/10 A2998 RMK A01 T01450104  RH  076%=      5-min Rain = 0
KWT1 241856Z 30000KT 14/10 A2998 RMK A01 T01440104  RH  077%=      5-min Rain = 0
KWT1 241857Z 27002KT 15/11 A2998 RMK A01 T01450105  RH  077%=      5-min Rain = 0
KWT1 241858Z 26002KT 15/11 A2998 RMK A01 T01450106  RH  077%=      5-min Rain = 0
KWT1 241859Z 25002KT 15/11 A2998 RMK A01 T01450107  RH  078%=      5-min Rain = 0
KWT1 241900Z 24001KT 15/10 A2998 RMK A01 T01450104  RH  077%=      5-min Rain = 0
KWT1 241901Z 24001KT 14/10 A2998 RMK A01 T01440104  RH  077%=      5-min Rain = 0
KWT1 241902Z 28003KT 14/11 A2997 RMK A01 T01440107  RH  078%=      5-min Rain = 0
KWT1 241903Z 29003KT 15/11 A2997 RMK A01 T01450107  RH  078%=      5-min Rain = 0
KWT1 241904Z 29004KT 15/11 A2997 RMK A01 T01450110  RH  080%=      5-min Rain = 0
KWT1 241905Z 28004KT 15/11 A2998 RMK A01 T01450106  RH  077%=      5-min Rain = 0
KWT1 241906Z 29003KT 15/11 A2998 RMK A01 T01450106  RH  078%=      5-min Rain = 0
KWT1 241907Z 29004KT 14/11 A2998 RMK A01 T01440105  RH  077%=      5-min Rain = 0
KWT1 241908Z 28003KT 14/11 A2998 RMK A01 T01430106  RH  078%=      5-min Rain = 0
KWT1 241909Z 28003KT 14/10 A2998 RMK A01 T01430102  RH  077%=      5-min Rain = 0
KWT1 241910Z 27003KT 14/11 A2998 RMK A01 T01420106  RH  079%=      5-min Rain = 0
KWT1 241911Z 26002KT 14/11 A2998 RMK A01 T01430106  RH  078%=      5-min Rain = 0
KWT1 241912Z 25002KT 14/10 A2998 RMK A01 T01430103  RH  077%=      5-min Rain = 0
KWT1 241913Z 25002KT 14/11 A2998 RMK A01 T01430107  RH  079%=      5-min Rain = 0
KWT1 241914Z 30002KT 14/11 A2998 RMK A01 T01440107  RH  078%=      5-min Rain = 0
KWT1 241915Z 30002KT 14/10 A2998 RMK A01 T01440103  RH  076%=      5-min Rain = 0
KWT1 241916Z 32001KT 14/10 A2998 RMK A01 T01430102  RH  076%=      5-min Rain = 0
KWT1 241917Z 31001KT 14/10 A2998 RMK A01 T01430102  RH  076%=      5-min Rain = 0
KWT1 241918Z 27002KT 14/11 A2998 RMK A01 T01440108  RH  079%=      5-min Rain = 0
KWT1 241919Z 27003KT 15/11 A2998 RMK A01 T01450105  RH  077%=      5-min Rain = 0
KWT1 241920Z 29002KT 14/11 A2998 RMK A01 T01440105  RH  077%=      5-min Rain = 0
KWT1 241921Z 29001KT 14/10 A2998 RMK A01 T01440104  RH  076%=      5-min Rain = 0
KWT1 241922Z 34003KT 15/10 A2997 RMK A01 T01450103  RH  076%=      5-min Rain = 0
KWT1 241923Z 34003KT 15/10 A2997 RMK A01 T01450103  RH  076%=      5-min Rain = 0
KWT1 241924Z 33003KT 15/11 A2997 RMK A01 T01450106  RH  078%=      5-min Rain = 0
KWT1 241925Z 31003KT 15/11 A2997 RMK A01 T01460109  RH  079%=      5-min Rain = 0
KWT1 241926Z 30003KT 15/11 A2997 RMK A01 T01460107  RH  077%=      5-min Rain = 0
KWT1 241927Z 30003KT 15/11 A2997 RMK A01 T01470109  RH  078%=      5-min Rain = 0
KWT1 241928Z 29002KT 15/11 A2997 RMK A01 T01470106  RH  076%=      5-min Rain = 0
KWT1 241929Z 30003KT 15/10 A2997 RMK A01 T01460104  RH  076%=      5-min Rain = 0
KWT1 241930Z 29003KT 15/11 A2997 RMK A01 T01460105  RH  076%=      5-min Rain = 0
KWT1 241931Z 31002KT 15/10 A2997 RMK A01 T01460104  RH  076%=      5-min Rain = 0
KWT1 241932Z 33001KT 15/10 A2997 RMK A01 T01450102  RH  075%=      5-min Rain = 0
KWT1 241933Z 03000KT 14/10 A2997 RMK A01 T01440104  RH  076%=      5-min Rain = 0
KWT1 241934Z 08000KT 15/11 A2997 RMK A01 T01450105  RH  077%=      5-min Rain = 0
KWT1 241935Z 00000KT 15/11 A2997 RMK A01 T01450105  RH  077%=      5-min Rain = 0
KWT1 241936Z 00000KT 15/11 A2997 RMK A01 T01460108  RH  078%=      5-min Rain = 0
KWT1 241937Z 32001KT 15/11 A2997 RMK A01 T01470107  RH  077%=      5-min Rain = 0
KWT1 241938Z 35001KT 15/10 A2997 RMK A01 T01470104  RH  075%=      5-min Rain = 0
KWT1 241939Z 32001KT 15/10 A2997 RMK A01 T01460103  RH  075%=      5-min Rain = 0
KWT1 241940Z 32001KT 15/11 A2997 RMK A01 T01460105  RH  076%=      5-min Rain = 0
KWT1 241941Z 29003KT 15/11 A2997 RMK A01 T01460106  RH  077%=      5-min Rain = 0
KWT1 241942Z 28003KT 15/11 A2997 RMK A01 T01470106  RH  077%=      5-min Rain = 0
KWT1 241943Z 29003KT 15/10 A2997 RMK A01 T01460104  RH  076%=      5-min Rain = 0
KWT1 241944Z 30003KT 15/11 A2997 RMK A01 T01460105  RH  076%=      5-min Rain = 0
KWT1 241945Z 31002KT 15/11 A2997 RMK A01 T01460107  RH  077%=      5-min Rain = 0
KWT1 241946Z 32002KT 15/11 A2997 RMK A01 T01470107  RH  077%=      5-min Rain = 0
KWT1 241947Z 35002KT 15/11 A2997 RMK A01 T01470106  RH  076%=      5-min Rain = 0
KWT1 241948Z 35000KT 15/11 A2997 RMK A01 T01480107  RH  077%=      5-min Rain = 0
KWT1 241949Z 05000KT 15/10 A2997 RMK A01 T01480104  RH  075%=      5-min Rain = 0
KWT1 241950Z 08000KT 15/10 A2997 RMK A01 T01480102  RH  074%=      5-min Rain = 0
KWT1 241951Z 27000KT 15/10 A2997 RMK A01 T01480103  RH  074%=      5-min Rain = 0
KWT1 241952Z 25001KT 15/11 A2997 RMK A01 T01490110  RH  077%=      5-min Rain = 0
KWT1 241953Z 29003KT 15/11 A2997 RMK A01 T01500111  RH  077%=      5-min Rain = 0
KWT1 241954Z 29004KT 15/11 A2996 RMK A01 T01510107  RH  075%=      5-min Rain = 0
KWT1 241955Z 30003KT 15/11 A2996 RMK A01 T01500108  RH  076%=      5-min Rain = 0
KWT1 241956Z 31003KT 15/11 A2996 RMK A01 T01500106  RH  075%=      5-min Rain = 0
KWT1 241957Z 32003KT 15/11 A2996 RMK A01 T01500105  RH  074%=      5-min Rain = 0
KWT1 241958Z 33002KT 15/11 A2996 RMK A01 T01500107  RH  075%=      5-min Rain = 0
KWT1 241959Z 31002KT 15/11 A2996 RMK A01 T01500105  RH  075%=      5-min Rain = 0
KWT1 242000Z 31003KT 15/11 A2996 RMK A01 T01500105  RH  075%=      5-min Rain = 0
KWT1 242001Z 31004KT 15/11 A2996 RMK A01 T01500107  RH  075%=      5-min Rain = 0
KWT1 242002Z 32004KT 15/11 A2996 RMK A01 T01510109  RH  076%=      5-min Rain = 0
KWT1 242003Z 31003KT 15/11 A2996 RMK A01 T01510108  RH  075%=      5-min Rain = 0
KWT1 242004Z 30003KT 15/11 A2996 RMK A01 T01520110  RH  076%=      5-min Rain = 0
KWT1 242005Z 28004KT 15/11 A2995 RMK A01 T01530109  RH  075%=      5-min Rain = 0
KWT1 242006Z 28004KT 15/11 A2995 RMK A01 T01530108  RH  075%=      5-min Rain = 0
KWT1 242007Z 33004KT 15/11 A2995 RMK A01 T01530108  RH  075%=      5-min Rain = 0
KWT1 242008Z 33004KT 15/11 A2995 RMK A01 T01530107  RH  074%=      5-min Rain = 0
KWT1 242009Z 33004KT 15/10 A2995 RMK A01 T01520104  RH  073%=      5-min Rain = 0
KWT1 242010Z 34004KT 15/11 A2995 RMK A01 T01510105  RH  074%=      5-min Rain = 0
KWT1 242011Z 32003KT 15/11 A2995 RMK A01 T01500106  RH  075%=      5-min Rain = 0
KWT1 242012Z 29004KT 15/11 A2995 RMK A01 T01520111  RH  076%=      5-min Rain = 0
KWT1 242013Z 28004KT 15/11 A2995 RMK A01 T01530107  RH  074%=      5-min Rain = 0
KWT1 242014Z 28005KT 15/11 A2995 RMK A01 T01520107  RH  074%=      5-min Rain = 0
KWT1 242015Z 28004KT 15/11 A2995 RMK A01 T01520106  RH  074%=      5-min Rain = 0
KWT1 242016Z 29004KT 15/11 A2995 RMK A01 T01530110  RH  076%=      5-min Rain = 0
KWT1 242017Z 28003KT 15/11 A2995 RMK A01 T01540106  RH  073%=      5-min Rain = 0
KWT1 242018Z 32003KT 15/11 A2995 RMK A01 T01540107  RH  074%=      5-min Rain = 0
KWT1 242019Z 32002KT 15/11 A2995 RMK A01 T01540106  RH  073%=      5-min Rain = 0
KWT1 242020Z 30003KT 15/11 A2995 RMK A01 T01540105  RH  073%=      5-min Rain = 0
KWT1 242021Z 32002KT 15/10 A2995 RMK A01 T01530103  RH  072%=      5-min Rain = 0
KWT1 242022Z 31002KT 15/11 A2995 RMK A01 T01520106  RH  074%=      5-min Rain = 0
KWT1 242023Z 28004KT 15/11 A2995 RMK A01 T01530108  RH  075%=      5-min Rain = 0
KWT1 242024Z 29004KT 15/11 A2995 RMK A01 T01530106  RH  074%=      5-min Rain = 0
KWT1 242025Z 29005KT 15/11 A2995 RMK A01 T01530106  RH  074%=      5-min Rain = 0
KWT1 242026Z 29004KT 15/11 A2995 RMK A01 T01530106  RH  073%=      5-min Rain = 0
KWT1 242027Z 31004KT 15/11 A2995 RMK A01 T01540109  RH  074%=      5-min Rain = 0
KWT1 242028Z 33004KT 15/10 A2995 RMK A01 T01540104  RH  072%=      5-min Rain = 0
KWT1 242029Z 33004KT 15/10 A2995 RMK A01 T01540103  RH  072%=      5-min Rain = 0
KWT1 242030Z 33004KT 15/10 A2995 RMK A01 T01540101  RH  071%=      5-min Rain = 0
KWT1 242031Z 34004KT 15/10 A2995 RMK A01 T01540103  RH  072%=      5-min Rain = 0
KWT1 242032Z 34004KT 15/10 A2995 RMK A01 T01540102  RH  071%=      5-min Rain = 0
KWT1 242033Z 33005KT 15/11 A2995 RMK A01 T01530105  RH  073%=      5-min Rain = 0
KWT1 242034Z 31004KT 15/11 A2995 RMK A01 T01540106  RH  073%=      5-min Rain = 0
KWT1 242035Z 30003KT 16/11 A2995 RMK A01 T01550111  RH  075%=      5-min Rain = 0
KWT1 242036Z 31004KT 16/11 A2995 RMK A01 T01550107  RH  073%=      5-min Rain = 0
KWT1 242037Z 31004KT 16/10 A2995 RMK A01 T01550104  RH  071%=      5-min Rain = 0
KWT1 242038Z 32004KT 16/11 A2995 RMK A01 T01550108  RH  073%=      5-min Rain = 0
KWT1 242039Z 33005KT 16/11 A2995 RMK A01 T01560108  RH  073%=      5-min Rain = 0
KWT1 242040Z 33004KT 16/11 A2995 RMK A01 T01560107  RH  073%=      5-min Rain = 0
KWT1 242041Z 33004KT 16/11 A2995 RMK A01 T01550106  RH  072%=      5-min Rain = 0
KWT1 242042Z 33002KT 16/11 A2995 RMK A01 T01550107  RH  073%=      5-min Rain = 0
KWT1 242043Z 31003KT 16/11 A2994 RMK A01 T01550110  RH  074%=      5-min Rain = 0
KWT1 242044Z 31004KT 16/11 A2994 RMK A01 T01550108  RH  073%=      5-min Rain = 0
KWT1 242045Z 32002KT 16/11 A2994 RMK A01 T01550106  RH  072%=      5-min Rain = 0
KWT1 242046Z 32003KT 16/11 A2994 RMK A01 T01550108  RH  073%=      5-min Rain = 0
KWT1 242047Z 33003KT 16/11 A2994 RMK A01 T01550107  RH  073%=      5-min Rain = 0
KWT1 242048Z 33005KT 16/11 A2994 RMK A01 T01550107  RH  073%=      5-min Rain = 0
KWT1 242049Z 32005KT 16/11 A2994 RMK A01 T01560108  RH  073%=      5-min Rain = 0
KWT1 242050Z 33005KT 16/11 A2994 RMK A01 T01550107  RH  073%=      5-min Rain = 0
KWT1 242051Z 34006KT 16/11 A2994 RMK A01 T01560108  RH  073%=      5-min Rain = 0
KWT1 242052Z 35006KT 16/11 A2994 RMK A01 T01560105  RH  072%=      5-min Rain = 0
KWT1 242053Z 35006KT 16/10 A2994 RMK A01 T01560104  RH  071%=      5-min Rain = 0
KWT1 242054Z 35006KT 16/11 A2994 RMK A01 T01560106  RH  073%=      5-min Rain = 0
KWT1 242055Z 00005KT 16/10 A2994 RMK A01 T01550104  RH  072%=      5-min Rain = 0
KWT1 242056Z 35004KT 16/11 A2994 RMK A01 T01550105  RH  072%=      5-min Rain = 0
KWT1 242057Z 34005KT 16/11 A2994 RMK A01 T01550109  RH  074%=      5-min Rain = 0
KWT1 242058Z 33006KT 16/11 A2994 RMK A01 T01570112  RH  075%=      5-min Rain = 0
KWT1 242059Z 33006KT 16/11 A2994 RMK A01 T01570109  RH  073%=      5-min Rain = 0
KWT1 242100Z 33005KT 16/11 A2993 RMK A01 T01570111  RH  074%=      5-min Rain = 0
KWT1 242101Z 36005KT 16/11 A2993 RMK A01 T01570109  RH  073%=      5-min Rain = 0
KWT1 242102Z 00005KT 16/11 A2993 RMK A01 T01580113  RH  074%=      5-min Rain = 0
KWT1 242103Z 01005KT 16/11 A2993 RMK A01 T01580111  RH  073%=      5-min Rain = 0
KWT1 242104Z 00005KT 16/11 A2993 RMK A01 T01580108  RH  072%=      5-min Rain = 0
KWT1 242105Z 01005KT 16/11 A2993 RMK A01 T01580108  RH  072%=      5-min Rain = 0
KWT1 242106Z 00007KT 16/11 A2993 RMK A01 T01570108  RH  073%=      5-min Rain = 0
KWT1 242107Z 36007KT 16/11 A2993 RMK A01 T01570107  RH  072%=      5-min Rain = 0
KWT1 242108Z 36007KT 16/11 A2993 RMK A01 T01570107  RH  072%=      5-min Rain = 0
KWT1 242109Z 01005KT 16/11 A2993 RMK A01 T01570106  RH  072%=      5-min Rain = 0
KWT1 242110Z 36005KT 16/11 A2993 RMK A01 T01570109  RH  073%=      5-min Rain = 0
KWT1 242111Z 36006KT 16/11 A2993 RMK A01 T01570109  RH  073%=      5-min Rain = 0
KWT1 242112Z 36006KT 16/11 A2992 RMK A01 T01580109  RH  073%=      5-min Rain = 0
KWT1 242113Z 36005KT 16/11 A2992 RMK A01 T01580110  RH  073%=      5-min Rain = 0
KWT1 242114Z 35005KT 16/11 A2992 RMK A01 T01580108  RH  072%=      5-min Rain = 0
KWT1 242115Z 35006KT 16/11 A2992 RMK A01 T01580110  RH  073%=      5-min Rain = 0
KWT1 242116Z 00005KT 16/11 A2992 RMK A01 T01590110  RH  073%=      5-min Rain = 0
KWT1 242117Z 36004KT 16/11 A2992 RMK A01 T01590107  RH  071%=      5-min Rain = 0
KWT1 242118Z 34003KT 16/11 A2992 RMK A01 T01580108  RH  072%=      5-min Rain = 0
KWT1 242119Z 34003KT 16/11 A2992 RMK A01 T01580110  RH  073%=      5-min Rain = 0
KWT1 242120Z 01003KT 16/11 A2992 RMK A01 T01580111  RH  073%=      5-min Rain = 0
KWT1 242121Z 03003KT 16/11 A2992 RMK A01 T01590112  RH  073%=      5-min Rain = 0
KWT1 242122Z 04003KT 16/11 A2992 RMK A01 T01600113  RH  073%=      5-min Rain = 0
KWT1 242123Z 02002KT 16/11 A2992 RMK A01 T01600111  RH  072%=      5-min Rain = 0
KWT1 242124Z 02002KT 16/11 A2992 RMK A01 T01600112  RH  073%=      5-min Rain = 0
KWT1 242125Z 04004KT 16/11 A2992 RMK A01 T01600113  RH  074%=      5-min Rain = 0
KWT1 242126Z 04003KT 16/11 A2992 RMK A01 T01610111  RH  072%=      5-min Rain = 0
KWT1 242127Z 06003KT 16/11 A2992 RMK A01 T01610114  RH  073%=      5-min Rain = 0
KWT1 242128Z 06004KT 16/11 A2992 RMK A01 T01620111  RH  072%=      5-min Rain = 0
KWT1 242129Z 07004KT 16/11 A2992 RMK A01 T01620108  RH  071%=      5-min Rain = 0
KWT1 242130Z 06002KT 16/11 A2992 RMK A01 T01610112  RH  073%=      5-min Rain = 0
KWT1 242131Z 02003KT 16/11 A2992 RMK A01 T01620110  RH  071%=      5-min Rain = 0
KWT1 242132Z 02003KT 16/11 A2992 RMK A01 T01620107  RH  070%=      5-min Rain = 0
KWT1 242133Z 04004KT 16/11 A2992 RMK A01 T01620108  RH  071%=      5-min Rain = 0
KWT1 242134Z 07004KT 16/11 A2992 RMK A01 T01620109  RH  071%=      5-min Rain = 0
KWT1 242135Z 07003KT 16/11 A2992 RMK A01 T01620111  RH  072%=      5-min Rain = 0
KWT1 242136Z 07003KT 16/11 A2992 RMK A01 T01630111  RH  072%=      5-min Rain = 0
KWT1 242137Z 08003KT 16/11 A2992 RMK A01 T01630108  RH  070%=      5-min Rain = 0
KWT1 242138Z 08004KT 16/11 A2992 RMK A01 T01630108  RH  070%=      5-min Rain = 0
KWT1 242139Z 09004KT 16/11 A2992 RMK A01 T01620111  RH  071%=      5-min Rain = 0
KWT1 242140Z 10004KT 16/11 A2992 RMK A01 T01620112  RH  072%=      5-min Rain = 0
KWT1 242141Z 11003KT 16/11 A2992 RMK A01 T01630112  RH  072%=      5-min Rain = 0
KWT1 242142Z 08004KT 16/11 A2992 RMK A01 T01630107  RH  069%=      5-min Rain = 0
KWT1 242143Z 08003KT 16/11 A2992 RMK A01 T01620109  RH  070%=      5-min Rain = 0
KWT1 242144Z 08001KT 16/11 A2992 RMK A01 T01620107  RH  070%=      5-min Rain = 0
KWT1 242145Z 08002KT 16/11 A2992 RMK A01 T01620109  RH  071%=      5-min Rain = 0
KWT1 242146Z 08002KT 16/11 A2992 RMK A01 T01630109  RH  070%=      5-min Rain = 0
KWT1 242147Z 09003KT 16/11 A2991 RMK A01 T01640113  RH  072%=      5-min Rain = 0
KWT1 242148Z 09003KT 16/11 A2991 RMK A01 T01630109  RH  070%=      5-min Rain = 0
KWT1 242149Z 07004KT 16/11 A2991 RMK A01 T01630113  RH  072%=      5-min Rain = 0
KWT1 242150Z 06004KT 16/11 A2991 RMK A01 T01640110  RH  071%=      5-min Rain = 0
KWT1 242151Z 06004KT 16/11 A2991 RMK A01 T01630108  RH  070%=      5-min Rain = 0
KWT1 242152Z 07003KT 16/11 A2991 RMK A01 T01630109  RH  070%=      5-min Rain = 0
KWT1 242153Z 06003KT 16/11 A2991 RMK A01 T01620108  RH  070%=      5-min Rain = 0
KWT1 242154Z 05002KT 16/11 A2991 RMK A01 T01620107  RH  070%=      5-min Rain = 0
KWT1 242155Z 05003KT 16/11 A2991 RMK A01 T01620112  RH  072%=      5-min Rain = 0
KWT1 242156Z 05004KT 16/11 A2991 RMK A01 T01630112  RH  072%=      5-min Rain = 0
KWT1 242157Z 06006KT 16/11 A299 RMK A01 T01640111  RH  071%=      5-min Rain = 0
KWT1 242158Z 06005KT 16/11 A299 RMK A01 T01640108  RH  070%=      5-min Rain = 0
KWT1 242159Z 06006KT 16/11 A299 RMK A01 T01630108  RH  070%=      5-min Rain = 0
KWT1 242200Z 05006KT 16/11 A299 RMK A01 T01630110  RH  071%=      5-min Rain = 0
KWT1 242201Z 06006KT 16/11 A299 RMK A01 T01630108  RH  070%=      5-min Rain = 0
KWT1 242202Z 05005KT 16/11 A299 RMK A01 T01630108  RH  070%=      5-min Rain = 0
KWT1 242203Z 05005KT 16/11 A299 RMK A01 T01630110  RH  071%=      5-min Rain = 0
KWT1 242204Z 03006KT 16/11 A2989 RMK A01 T01630112  RH  072%=      5-min Rain = 0
KWT1 242205Z 03007KT 16/11 A2989 RMK A01 T01640112  RH  071%=      5-min Rain = 0
KWT1 242206Z 03007KT 16/11 A2989 RMK A01 T01640114  RH  072%=      5-min Rain = 0
KWT1 242207Z 03007KT 17/11 A2989 RMK A01 T01650113  RH  071%=      5-min Rain = 0
KWT1 242208Z 03008KT 17/11 A2989 RMK A01 T01650112  RH  070%=      5-min Rain = 0
KWT1 242209Z 03006KT 17/11 A2989 RMK A01 T01650110  RH  070%=      5-min Rain = 0
KWT1 242210Z 04007KT 16/11 A2989 RMK A01 T01640112  RH  072%=      5-min Rain = 0
KWT1 242211Z 03007KT 17/11 A2989 RMK A01 T01650114  RH  072%=      5-min Rain = 0
KWT1 242212Z 03008KT 17/11 A2989 RMK A01 T01660114  RH  071%=      5-min Rain = 0
KWT1 242213Z 03006KT 17/11 A2989 RMK A01 T01660113  RH  071%=      5-min Rain = 0
KWT1 242214Z 03006KT 17/11 A2989 RMK A01 T01670112  RH  070%=      5-min Rain = 0
KWT1 242215Z 03007KT 17/11 A2989 RMK A01 T01670114  RH  071%=      5-min Rain = 0
KWT1 242216Z 03006KT 17/11 A2989 RMK A01 T01670109  RH  068%=      5-min Rain = 0
KWT1 242217Z 03006KT 17/11 A2988 RMK A01 T01670112  RH  070%=      5-min Rain = 0
KWT1 242218Z 02006KT 17/11 A2989 RMK A01 T01670111  RH  070%=      5-min Rain = 0
KWT1 242219Z 03008KT 17/11 A2989 RMK A01 T01670109  RH  068%=      5-min Rain = 0
KWT1 242220Z 03007KT 17/11 A2989 RMK A01 T01660109  RH  069%=      5-min Rain = 0
KWT1 242221Z 03006KT 17/11 A2989 RMK A01 T01660106  RH  068%=      5-min Rain = 0
KWT1 242222Z 02006KT 17/11 A2989 RMK A01 T01650108  RH  069%=      5-min Rain = 0
KWT1 242223Z 02004KT 17/11 A2989 RMK A01 T01650108  RH  069%=      5-min Rain = 0
KWT1 242224Z 02005KT 17/11 A2989 RMK A01 T01660109  RH  069%=      5-min Rain = 0
KWT1 242225Z 03005KT 17/11 A2989 RMK A01 T01660108  RH  069%=      5-min Rain = 0
KWT1 242226Z 02004KT 17/11 A2989 RMK A01 T01660108  RH  068%=      5-min Rain = 0
KWT1 242227Z 02003KT 17/11 A2989 RMK A01 T01670106  RH  067%=      5-min Rain = 0
KWT1 242228Z 03004KT 17/11 A2989 RMK A01 T01670107  RH  068%=      5-min Rain = 0
KWT1 242229Z 06006KT 17/11 A2989 RMK A01 T01670111  RH  069%=      5-min Rain = 0
KWT1 242230Z 04004KT 17/11 A2989 RMK A01 T01670110  RH  069%=      5-min Rain = 0
KWT1 242231Z 05004KT 17/11 A2989 RMK A01 T01670108  RH  068%=      5-min Rain = 0
KWT1 242232Z 05005KT 17/11 A2989 RMK A01 T01670108  RH  068%=      5-min Rain = 0
KWT1 242233Z 04004KT 17/10 A2989 RMK A01 T01670104  RH  067%=      5-min Rain = 0
KWT1 242234Z 04004KT 17/11 A2989 RMK A01 T01660105  RH  067%=      5-min Rain = 0
KWT1 242235Z 04005KT 17/11 A2989 RMK A01 T01660113  RH  071%=      5-min Rain = 0
KWT1 242236Z 03005KT 17/11 A2989 RMK A01 T01660107  RH  068%=      5-min Rain = 0
KWT1 242237Z 03005KT 17/11 A2989 RMK A01 T01660107  RH  068%=      5-min Rain = 0
KWT1 242238Z 03004KT 17/11 A2989 RMK A01 T01660107  RH  068%=      5-min Rain = 0
KWT1 242239Z 02003KT 17/11 A2989 RMK A01 T01660109  RH  069%=      5-min Rain = 0
KWT1 242240Z 03003KT 17/11 A2989 RMK A01 T01660109  RH  069%=      5-min Rain = 0
KWT1 242241Z 04004KT 17/11 A2989 RMK A01 T01660110  RH  069%=      5-min Rain = 0
KWT1 242242Z 06002KT 17/11 A2989 RMK A01 T01670107  RH  068%=      5-min Rain = 0
KWT1 242243Z 06003KT 17/11 A2989 RMK A01 T01670112  RH  070%=      5-min Rain = 0
KWT1 242244Z 07003KT 17/11 A2989 RMK A01 T01670106  RH  067%=      5-min Rain = 0
KWT1 242245Z 06002KT 17/10 A2989 RMK A01 T01670102  RH  066%=      5-min Rain = 0
KWT1 242246Z 07002KT 17/10 A2989 RMK A01 T01660103  RH  066%=      5-min Rain = 0
KWT1 242247Z 07002KT 17/10 A2989 RMK A01 T01660104  RH  067%=      5-min Rain = 0
KWT1 242248Z 11001KT 17/11 A2989 RMK A01 T01670108  RH  068%=      5-min Rain = 0
KWT1 242249Z 09002KT 17/11 A2989 RMK A01 T01670106  RH  067%=      5-min Rain = 0
KWT1 242250Z 08001KT 17/10 A2989 RMK A01 T01670104  RH  066%=      5-min Rain = 0
KWT1 242251Z 06000KT 17/10 A2989 RMK A01 T01670102  RH  065%=      5-min Rain = 0
KWT1 242252Z 16000KT 17/10 A2989 RMK A01 T01670104  RH  066%=      5-min Rain = 0
KWT1 242253Z 18001KT 17/11 A2989 RMK A01 T01670106  RH  067%=      5-min Rain = 0
KWT1 242254Z 20001KT 17/11 A2989 RMK A01 T01670106  RH  067%=      5-min Rain = 0
KWT1 242255Z 21001KT 17/10 A2989 RMK A01 T01670103  RH  066%=      5-min Rain = 0
KWT1 242256Z 18000KT 17/11 A2989 RMK A01 T01670107  RH  068%=      5-min Rain = 0
KWT1 242257Z 23000KT 17/11 A2989 RMK A01 T01670108  RH  068%=      5-min Rain = 0
KWT1 242258Z 26001KT 17/11 A2989 RMK A01 T01680111  RH  069%=      5-min Rain = 0
KWT1 242259Z 27000KT 17/11 A2989 RMK A01 T01680110  RH  069%=      5-min Rain = 0
KWT1 242300Z 29001KT 17/11 A2989 RMK A01 T01680105  RH  066%=      5-min Rain = 0
KWT1 242301Z 31000KT 17/11 A2989 RMK A01 T01690110  RH  068%=      5-min Rain = 0
KWT1 242302Z 29000KT 17/11 A2989 RMK A01 T01680108  RH  068%=      5-min Rain = 0
KWT1 242303Z 26001KT 17/10 A2989 RMK A01 T01680104  RH  066%=      5-min Rain = 0
KWT1 242304Z 25001KT 17/11 A2989 RMK A01 T01680107  RH  067%=      5-min Rain = 0
KWT1 242305Z 23002KT 17/11 A2989 RMK A01 T01680108  RH  068%=      5-min Rain = 0
KWT1 242306Z 23003KT 17/10 A2989 RMK A01 T01680104  RH  066%=      5-min Rain = 0
KWT1 242307Z 23002KT 17/10 A2989 RMK A01 T01670103  RH  066%=      5-min Rain = 0
KWT1 242308Z 25002KT 17/10 A2989 RMK A01 T01660103  RH  066%=      5-min Rain = 0
KWT1 242309Z 25002KT 17/11 A2989 RMK A01 T01660106  RH  068%=      5-min Rain = 0
KWT1 242310Z 23002KT 17/10 A2989 RMK A01 T01660103  RH  067%=      5-min Rain = 0
KWT1 242311Z 22002KT 17/10 A2989 RMK A01 T01660104  RH  067%=      5-min Rain = 0
KWT1 242312Z 22002KT 17/11 A2989 RMK A01 T01660105  RH  067%=      5-min Rain = 0
KWT1 242313Z 22002KT 17/11 A2989 RMK A01 T01660105  RH  067%=      5-min Rain = 0
KWT1 242314Z 19002KT 17/11 A2989 RMK A01 T01660108  RH  068%=      5-min Rain = 0
KWT1 242315Z 19001KT 17/11 A2989 RMK A01 T01670108  RH  068%=      5-min Rain = 0
KWT1 242316Z 20002KT 17/11 A2989 RMK A01 T01670107  RH  067%=      5-min Rain = 0
KWT1 242317Z 21002KT 17/11 A2989 RMK A01 T01670108  RH  068%=      5-min Rain = 0
KWT1 242318Z 16002KT 17/11 A2989 RMK A01 T01670113  RH  071%=      5-min Rain = 0
KWT1 242319Z 18003KT 17/11 A2989 RMK A01 T01670111  RH  069%=      5-min Rain = 0
KWT1 242320Z 19002KT 17/11 A2989 RMK A01 T01670106  RH  067%=      5-min Rain = 0
KWT1 242321Z 20002KT 17/11 A2989 RMK A01 T01670108  RH  068%=      5-min Rain = 0
KWT1 242322Z 18002KT 17/11 A2989 RMK A01 T01670110  RH  069%=      5-min Rain = 0
KWT1 242323Z 18004KT 17/11 A2989 RMK A01 T01670109  RH  068%=      5-min Rain = 0
KWT1 242324Z 18003KT 17/11 A2989 RMK A01 T01670105  RH  067%=      5-min Rain = 0
KWT1 242325Z 18003KT 17/11 A2989 RMK A01 T01670108  RH  068%=      5-min Rain = 0
KWT1 242326Z 18002KT 17/11 A2989 RMK A01 T01660111  RH  070%=      5-min Rain = 0
KWT1 242327Z 18003KT 17/11 A2989 RMK A01 T01670111  RH  070%=      5-min Rain = 0
KWT1 242328Z 17003KT 17/11 A2989 RMK A01 T01660109  RH  069%=      5-min Rain = 0
KWT1 242329Z 16003KT 17/11 A2989 RMK A01 T01660111  RH  070%=      5-min Rain = 0
KWT1 242330Z 16002KT 17/11 A2989 RMK A01 T01660111  RH  070%=      5-min Rain = 0
KWT1 242331Z 17002KT 17/11 A2989 RMK A01 T01660113  RH  071%=      5-min Rain = 0
KWT1 242332Z 19003KT 17/11 A2989 RMK A01 T01660114  RH  071%=      5-min Rain = 0
KWT1 242333Z 20003KT 17/11 A2989 RMK A01 T01660109  RH  069%=      5-min Rain = 0
KWT1 242334Z 20004KT 17/11 A2989 RMK A01 T01660107  RH  068%=      5-min Rain = 0
KWT1 242335Z 22005KT 17/11 A2989 RMK A01 T01650108  RH  069%=      5-min Rain = 0
KWT1 242336Z 18004KT 17/11 A2989 RMK A01 T01650111  RH  070%=      5-min Rain = 0
KWT1 242337Z 18004KT 17/11 A2989 RMK A01 T01650109  RH  069%=      5-min Rain = 0
KWT1 242338Z 20004KT 17/11 A2989 RMK A01 T01650109  RH  069%=      5-min Rain = 0
KWT1 242339Z 19006KT 17/11 A2989 RMK A01 T01650109  RH  069%=      5-min Rain = 0
KWT1 242340Z 18005KT 16/11 A2989 RMK A01 T01640113  RH  071%=      5-min Rain = 0
KWT1 242341Z 18007KT 16/12 A2989 RMK A01 T01640115  RH  073%=      5-min Rain = 0
KWT1 242342Z 18007KT 16/11 A2989 RMK A01 T01630114  RH  073%=      5-min Rain = 0
KWT1 242343Z 18007KT 16/11 A2989 RMK A01 T01620113  RH  073%=      5-min Rain = 0
KWT1 242344Z 19006KT 16/11 A2989 RMK A01 T01610114  RH  074%=      5-min Rain = 0
KWT1 242345Z 18005KT 16/12 A2989 RMK A01 T01610115  RH  074%=      5-min Rain = 0
KWT1 242346Z 19004KT 16/12 A2989 RMK A01 T01610116  RH  075%=      5-min Rain = 0
KWT1 242347Z 19004KT 16/12 A2989 RMK A01 T01610119  RH  076%=      5-min Rain = 0
KWT1 242348Z 19004KT 16/12 A2989 RMK A01 T01610119  RH  076%=      5-min Rain = 0
KWT1 242349Z 20005KT 16/12 A2989 RMK A01 T01610120  RH  076%=      5-min Rain = 0
KWT1 242350Z 20005KT 16/12 A2989 RMK A01 T01620118  RH  076%=      5-min Rain = 0
KWT1 242351Z 20005KT 16/12 A2989 RMK A01 T01610117  RH  075%=      5-min Rain = 0
KWT1 242352Z 20005KT 16/12 A2989 RMK A01 T01620118  RH  076%=      5-min Rain = 0
KWT1 242353Z 19006KT 16/12 A2989 RMK A01 T01610118  RH  076%=      5-min Rain = 0
KWT1 242354Z 19005KT 16/12 A2989 RMK A01 T01610117  RH  075%=      5-min Rain = 0
KWT1 242355Z 19006KT 16/11 A2989 RMK A01 T01600114  RH  074%=      5-min Rain = 0
KWT1 242356Z 19006KT 16/11 A2989 RMK A01 T01600114  RH  074%=      5-min Rain = 0
KWT1 242357Z 19006KT 16/12 A2989 RMK A01 T01600116  RH  075%=      5-min Rain = 0
KWT1 242358Z 20007KT 16/12 A2989 RMK A01 T01590115  RH  075%=      5-min Rain = 0
KWT1 242359Z 20006KT 16/12 A2989 RMK A01 T01590115  RH  075%=      5-min Rain = 0
KWT1 250000Z 19007KT 16/11 A2989 RMK A01 T01590114  RH  075%=      5-min Rain = 0
KWT1 250001Z 19006KT 16/11 A2989 RMK A01 T01590114  RH  075%=      5-min Rain = 0
KWT1 250002Z 19006KT 16/11 A2989 RMK A01 T01580114  RH  075%=      5-min Rain = 0
KWT1 250003Z 20007KT 16/11 A2989 RMK A01 T01580114  RH  075%=      5-min Rain = 0
KWT1 250004Z 20007KT 16/12 A2989 RMK A01 T01580115  RH  075%=      5-min Rain = 0
KWT1 250005Z 20008KT 16/11 A2989 RMK A01 T01580113  RH  075%=      5-min Rain = 0
KWT1 250006Z 20007KT 16/11 A2989 RMK A01 T01570113  RH  075%=      5-min Rain = 0
KWT1 250007Z 20007KT 16/11 A2989 RMK A01 T01570114  RH  075%=      5-min Rain = 0
KWT1 250008Z 19006KT 16/12 A2989 RMK A01 T01570116  RH  077%=      5-min Rain = 0
KWT1 250009Z 20007KT 16/12 A2989 RMK A01 T01570118  RH  078%=      5-min Rain = 0
KWT1 250010Z 20008KT 16/12 A2989 RMK A01 T01560118  RH  078%=      5-min Rain = 0
KWT1 250011Z 20008KT 16/12 A2989 RMK A01 T01550117  RH  078%=      5-min Rain = 0
KWT1 250012Z 20008KT 16/12 A2989 RMK A01 T01550118  RH  079%=      5-min Rain = 0
KWT1 250013Z 20008KT 15/12 A2989 RMK A01 T01540118  RH  079%=      5-min Rain = 0
KWT1 250014Z 20009KT 15/12 A2989 RMK A01 T01540117  RH  079%=      5-min Rain = 0
KWT1 250015Z 19008KT 15/12 A2989 RMK A01 T01530118  RH  079%=      5-min Rain = 0
KWT1 250016Z 19010KT 15/12 A2989 RMK A01 T01530118  RH  079%=      5-min Rain = 0
KWT1 250017Z 19009KT 15/12 A2989 RMK A01 T01530117  RH  079%=      5-min Rain = 0
KWT1 250018Z 20008KT 15/12 A2989 RMK A01 T01520118  RH  080%=      5-min Rain = 0
KWT1 250019Z 19008KT 15/12 A2989 RMK A01 T01520118  RH  080%=      5-min Rain = 0
KWT1 250020Z 20008KT 15/12 A2989 RMK A01 T01520119  RH  080%=      5-min Rain = 0
KWT1 250021Z 19008KT 15/12 A2989 RMK A01 T01520118  RH  080%=      5-min Rain = 0
KWT1 250022Z 19006KT 15/12 A2989 RMK A01 T01520119  RH  081%=      5-min Rain = 0
KWT1 250023Z 20007KT 15/12 A2989 RMK A01 T01520119  RH  081%=      5-min Rain = 0
KWT1 250024Z 20008KT 15/12 A2989 RMK A01 T01520118  RH  080%=      5-min Rain = 0
KWT1 250025Z 20006KT 15/12 A2989 RMK A01 T01520119  RH  081%=      5-min Rain = 0
KWT1 250026Z 20007KT 15/12 A2989 RMK A01 T01520120  RH  081%=      5-min Rain = 0
KWT1 250027Z 20006KT 15/12 A2989 RMK A01 T01530120  RH  081%=      5-min Rain = 0
KWT1 250028Z 20008KT 15/12 A2989 RMK A01 T01530120  RH  081%=      5-min Rain = 0
KWT1 250029Z 20008KT 15/12 A2989 RMK A01 T01530118  RH  080%=      5-min Rain = 0
KWT1 250030Z 20008KT 15/12 A2989 RMK A01 T01530118  RH  080%=      5-min Rain = 0
KWT1 250031Z 20007KT 15/12 A2989 RMK A01 T01530117  RH  079%=      5-min Rain = 0
KWT1 250032Z 20007KT 15/12 A2989 RMK A01 T01520119  RH  080%=      5-min Rain = 0
KWT1 250033Z 20006KT 15/12 A2989 RMK A01 T01530120  RH  081%=      5-min Rain = 0
KWT1 250034Z 20007KT 15/12 A2989 RMK A01 T01530120  RH  081%=      5-min Rain = 0
KWT1 250035Z 21006KT 15/12 A2989 RMK A01 T01520119  RH  081%=      5-min Rain = 0
KWT1 250036Z 20006KT 15/12 A2989 RMK A01 T01520120  RH  081%=      5-min Rain = 0
KWT1 250037Z 21005KT 15/12 A2989 RMK A01 T01510121  RH  082%=      5-min Rain = 0
KWT1 250038Z 21006KT 15/12 A2989 RMK A01 T01510121  RH  082%=      5-min Rain = 0
KWT1 250039Z 20008KT 15/12 A2989 RMK A01 T01510120  RH  082%=      5-min Rain = 0
KWT1 250040Z 20007KT 15/12 A2989 RMK A01 T01510119  RH  081%=      5-min Rain = 0
KWT1 250041Z 20006KT 15/12 A2989 RMK A01 T01510120  RH  082%=      5-min Rain = 0
KWT1 250042Z 20005KT 15/12 A2989 RMK A01 T01510121  RH  082%=      5-min Rain = 0
KWT1 250043Z 20005KT 15/12 A2989 RMK A01 T01510122  RH  083%=      5-min Rain = 0
KWT1 250044Z 21006KT 15/12 A2989 RMK A01 T01500122  RH  083%=      5-min Rain = 0
KWT1 250045Z 21006KT 15/12 A2989 RMK A01 T01500121  RH  083%=      5-min Rain = 0
KWT1 250046Z 21006KT 15/12 A2989 RMK A01 T01500121  RH  083%=      5-min Rain = 0
KWT1 250047Z 21005KT 15/12 A2989 RMK A01 T01490120  RH  083%=      5-min Rain = 0
KWT1 250048Z 20007KT 15/12 A2989 RMK A01 T01490119  RH  082%=      5-min Rain = 0
KWT1 250049Z 20005KT 15/12 A2989 RMK A01 T01490119  RH  082%=      5-min Rain = 0
KWT1 250050Z 20005KT 15/12 A2989 RMK A01 T01500120  RH  083%=      5-min Rain = 0
KWT1 250051Z 20005KT 15/12 A2989 RMK A01 T01500121  RH  083%=      5-min Rain = 0
KWT1 250052Z 20005KT 15/12 A2989 RMK A01 T01500122  RH  083%=      5-min Rain = 0
KWT1 250053Z 20006KT 15/12 A2989 RMK A01 T01490121  RH  083%=      5-min Rain = 0
KWT1 250054Z 20006KT 15/12 A2989 RMK A01 T01490121  RH  083%=      5-min Rain = 0
KWT1 250055Z 20006KT 15/12 A2989 RMK A01 T01480121  RH  084%=      5-min Rain = 0
KWT1 250056Z 20005KT 15/12 A2989 RMK A01 T01490122  RH  084%=      5-min Rain = 0
KWT1 250057Z 20006KT 15/12 A2989 RMK A01 T01480121  RH  084%=      5-min Rain = 0
KWT1 250058Z 20006KT 15/12 A2989 RMK A01 T01480121  RH  083%=      5-min Rain = 0
KWT1 250059Z 20006KT 15/12 A2989 RMK A01 T01490121  RH  084%=      5-min Rain = 0
KWT1 250100Z 20006KT 15/12 A2989 RMK A01 T01490121  RH  084%=      5-min Rain = 0
KWT1 250101Z 19006KT 15/12 A2989 RMK A01 T01490121  RH  083%=      5-min Rain = 0
KWT1 250102Z 19006KT 15/12 A2989 RMK A01 T01490121  RH  083%=      5-min Rain = 0
KWT1 250103Z 20006KT 15/12 A2989 RMK A01 T01490121  RH  083%=      5-min Rain = 0
KWT1 250104Z 20006KT 15/12 A2989 RMK A01 T01480121  RH  084%=      5-min Rain = 0
KWT1 250105Z 20006KT 15/12 A2989 RMK A01 T01480121  RH  084%=      5-min Rain = 0
KWT1 250106Z 19006KT 15/12 A2989 RMK A01 T01480121  RH  084%=      5-min Rain = 0
KWT1 250107Z 19007KT 15/12 A2989 RMK A01 T01470121  RH  084%=      5-min Rain = 0
KWT1 250108Z 19007KT 15/12 A2989 RMK A01 T01470120  RH  084%=      5-min Rain = 0
KWT1 250109Z 19006KT 15/12 A2989 RMK A01 T01470121  RH  084%=      5-min Rain = 0
KWT1 250110Z 19006KT 15/12 A2989 RMK A01 T01460121  RH  085%=      5-min Rain = 0
KWT1 250111Z 19006KT 15/12 A2989 RMK A01 T01460121  RH  085%=      5-min Rain = 0
KWT1 250112Z 19007KT 15/12 A2989 RMK A01 T01450121  RH  085%=      5-min Rain = 0
KWT1 250113Z 19007KT 15/12 A2989 RMK A01 T01450121  RH  085%=      5-min Rain = 0
KWT1 250114Z 19007KT 15/12 A2989 RMK A01 T01450122  RH  086%=      5-min Rain = 0
KWT1 250115Z 19006KT 15/12 A2989 RMK A01 T01450122  RH  086%=      5-min Rain = 0
KWT1 250116Z 19006KT 14/12 A2989 RMK A01 T01440121  RH  086%=      5-min Rain = 0
KWT1 250117Z 19007KT 14/12 A2989 RMK A01 T01440121  RH  086%=      5-min Rain = 0
KWT1 250118Z 19006KT 14/12 A2989 RMK A01 T01430121  RH  086%=      5-min Rain = 0
KWT1 250119Z 19007KT 14/12 A2989 RMK A01 T01430121  RH  087%=      5-min Rain = 0
KWT1 250120Z 20006KT 14/12 A2989 RMK A01 T01430121  RH  087%=      5-min Rain = 0
KWT1 250121Z 20006KT 14/12 A2989 RMK A01 T01430121  RH  087%=      5-min Rain = 0
KWT1 250122Z 20006KT 14/12 A2989 RMK A01 T01420121  RH  087%=      5-min Rain = 0
KWT1 250123Z 20006KT 14/12 A2989 RMK A01 T01420121  RH  087%=      5-min Rain = 0
KWT1 250124Z 19005KT 14/12 A2989 RMK A01 T01420121  RH  087%=      5-min Rain = 0
KWT1 250125Z 20005KT 14/12 A2989 RMK A01 T01420121  RH  087%=      5-min Rain = 0
KWT1 250126Z 20005KT 14/12 A2989 RMK A01 T01420121  RH  087%=      5-min Rain = 0
KWT1 250127Z 20005KT 14/12 A2989 RMK A01 T01420121  RH  087%=      5-min Rain = 0
KWT1 250128Z 20005KT 14/12 A2989 RMK A01 T01410121  RH  087%=      5-min Rain = 0
KWT1 250129Z 20005KT 14/12 A2989 RMK A01 T01410121  RH  088%=      5-min Rain = 0
KWT1 250130Z 20005KT 14/12 A2989 RMK A01 T01410121  RH  088%=      5-min Rain = 0
KWT1 250131Z 20005KT 14/12 A2989 RMK A01 T01410121  RH  088%=      5-min Rain = 0
KWT1 250132Z 20005KT 14/12 A2989 RMK A01 T01400121  RH  088%=      5-min Rain = 0
KWT1 250133Z 20005KT 14/12 A2989 RMK A01 T01400121  RH  088%=      5-min Rain = 0
KWT1 250134Z 20005KT 14/12 A2989 RMK A01 T01400122  RH  089%=      5-min Rain = 0
KWT1 250135Z 20005KT 14/12 A2989 RMK A01 T01390121  RH  089%=      5-min Rain = 0
KWT1 250136Z 20005KT 14/12 A2989 RMK A01 T01390121  RH  089%=      5-min Rain = 0
KWT1 250137Z 20005KT 14/12 A2989 RMK A01 T01390121  RH  089%=      5-min Rain = 0
KWT1 250138Z 20005KT 14/12 A2989 RMK A01 T01390121  RH  089%=      5-min Rain = 0
KWT1 250139Z 20005KT 14/12 A2989 RMK A01 T01380121  RH  089%=      5-min Rain = 0
KWT1 250140Z 20006KT 14/12 A2989 RMK A01 T01380121  RH  090%=      5-min Rain = 0
KWT1 250141Z 20006KT 14/12 A2989 RMK A01 T01370121  RH  090%=      5-min Rain = 0
KWT1 250142Z 20006KT 14/12 A2989 RMK A01 T01370121  RH  090%=      5-min Rain = 0
KWT1 250143Z 20006KT 14/12 A2989 RMK A01 T01370121  RH  090%=      5-min Rain = 0
KWT1 250144Z 20005KT 14/12 A2989 RMK A01 T01370121  RH  090%=      5-min Rain = 0
KWT1 250145Z 20006KT 14/12 A2989 RMK A01 T01370121  RH  090%=      5-min Rain = 0
KWT1 250146Z 20006KT 14/12 A2989 RMK A01 T01370121  RH  090%=      5-min Rain = 0
KWT1 250147Z 20006KT 14/12 A2989 RMK A01 T01360121  RH  091%=      5-min Rain = 0
KWT1 250148Z 20006KT 14/12 A2989 RMK A01 T01360121  RH  091%=      5-min Rain = 0
KWT1 250149Z 20007KT 14/12 A2989 RMK A01 T01360121  RH  091%=      5-min Rain = 0
KWT1 250150Z 20007KT 14/12 A2989 RMK A01 T01360121  RH  091%=      5-min Rain = 0
KWT1 250151Z 21006KT 14/12 A2989 RMK A01 T01350121  RH  091%=      5-min Rain = 0
KWT1 250152Z 21007KT 14/12 A2989 RMK A01 T01360121  RH  091%=      5-min Rain = 0
KWT1 250153Z 21006KT 14/12 A2989 RMK A01 T01350121  RH  091%=      5-min Rain = 0
KWT1 250154Z 21007KT 14/12 A2989 RMK A01 T01350121  RH  091%=      5-min Rain = 0
KWT1 250155Z 21006KT 14/12 A2989 RMK A01 T01360121  RH  091%=      5-min Rain = 0
KWT1 250156Z 21007KT 14/12 A2989 RMK A01 T01350120  RH  091%=      5-min Rain = 0
KWT1 250157Z 21007KT 14/12 A2989 RMK A01 T01350121  RH  091%=      5-min Rain = 0
KWT1 250158Z 21007KT 13/12 A2989 RMK A01 T01340120  RH  091%=      5-min Rain = 0
KWT1 250159Z 21007KT 13/12 A299 RMK A01 T01340120  RH  091%=      5-min Rain = 0
KWT1 250200Z 21007KT 13/12 A299 RMK A01 T01330120  RH  091%=      5-min Rain = 0
KWT1 250201Z 21007KT 13/12 A299 RMK A01 T01340120  RH  092%=      5-min Rain = 0
KWT1 250202Z 21007KT 13/12 A299 RMK A01 T01340120  RH  092%=      5-min Rain = 0
KWT1 250203Z 21007KT 13/12 A299 RMK A01 T01330120  RH  091%=      5-min Rain = 0
KWT1 250204Z 21007KT 13/12 A299 RMK A01 T01330120  RH  091%=      5-min Rain = 0
KWT1 250205Z 21007KT 13/12 A299 RMK A01 T01330120  RH  091%=      5-min Rain = 0
KWT1 250206Z 21007KT 13/12 A299 RMK A01 T01330120  RH  091%=      5-min Rain = 0
KWT1 250207Z 21007KT 13/12 A299 RMK A01 T01330119  RH  092%=      5-min Rain = 0
KWT1 250208Z 21006KT 13/12 A299 RMK A01 T01320119  RH  092%=      5-min Rain = 0
KWT1 250209Z 21006KT 13/12 A299 RMK A01 T01320119  RH  092%=      5-min Rain = 0
KWT1 250210Z 21006KT 13/12 A299 RMK A01 T01320119  RH  092%=      5-min Rain = 0
KWT1 250211Z 21006KT 13/12 A299 RMK A01 T01310119  RH  092%=      5-min Rain = 0
KWT1 250212Z 20006KT 13/12 A299 RMK A01 T01310119  RH  092%=      5-min Rain = 0
KWT1 250213Z 20006KT 13/12 A299 RMK A01 T01300118  RH  093%=      5-min Rain = 0
KWT1 250214Z 20006KT 13/12 A299 RMK A01 T01300119  RH  093%=      5-min Rain = 0
KWT1 250215Z 20006KT 13/12 A299 RMK A01 T01300119  RH  093%=      5-min Rain = 0
KWT1 250216Z 20006KT 13/12 A299 RMK A01 T01300119  RH  093%=      5-min Rain = 0
KWT1 250217Z 20006KT 13/12 A299 RMK A01 T01290119  RH  093%=      5-min Rain = 0
KWT1 250218Z 20006KT 13/12 A299 RMK A01 T01300119  RH  093%=      5-min Rain = 0
KWT1 250219Z 20006KT 13/12 A299 RMK A01 T01290119  RH  093%=      5-min Rain = 0
KWT1 250220Z 20005KT 13/12 A299 RMK A01 T01290119  RH  094%=      5-min Rain = 0
KWT1 250221Z 21006KT 13/12 A299 RMK A01 T01290119  RH  094%=      5-min Rain = 0
KWT1 250222Z 21006KT 13/12 A299 RMK A01 T01290119  RH  094%=      5-min Rain = 0
KWT1 250223Z 21006KT 13/12 A299 RMK A01 T01290119  RH  094%=      5-min Rain = 0
KWT1 250224Z 21006KT 13/12 A299 RMK A01 T01290119  RH  094%=      5-min Rain = 0
KWT1 250225Z 21006KT 13/12 A299 RMK A01 T01280119  RH  094%=      5-min Rain = 0
KWT1 250226Z 21006KT 13/12 A299 RMK A01 T01280119  RH  094%=      5-min Rain = 0
KWT1 250227Z 21006KT 13/12 A299 RMK A01 T01280119  RH  094%=      5-min Rain = 0
KWT1 250228Z 21006KT 13/12 A299 RMK A01 T01280118  RH  094%=      5-min Rain = 0
KWT1 250229Z 21006KT 13/12 A299 RMK A01 T01280118  RH  094%=      5-min Rain = 0
KWT1 250230Z 22006KT 13/12 A299 RMK A01 T01280118  RH  094%=      5-min Rain = 0
KWT1 250231Z 22006KT 13/12 A299 RMK A01 T01280118  RH  094%=      5-min Rain = 0
KWT1 250232Z 22007KT 13/12 A299 RMK A01 T01280118  RH  094%=      5-min Rain = 0
KWT1 250233Z 21007KT 13/12 A299 RMK A01 T01280118  RH  094%=      5-min Rain = 0
KWT1 250234Z 22007KT 13/12 A299 RMK A01 T01280118  RH  094%=      5-min Rain = 0
KWT1 250235Z 21007KT 13/12 A299 RMK A01 T01280118  RH  094%=      5-min Rain = 0
KWT1 250236Z 21007KT 13/12 A299 RMK A01 T01280118  RH  093%=      5-min Rain = 0
KWT1 250237Z 21008KT 13/12 A299 RMK A01 T01280117  RH  093%=      5-min Rain = 0
KWT1 250238Z 22008KT 13/12 A299 RMK A01 T01280117  RH  093%=      5-min Rain = 0
KWT1 250239Z 21007KT 13/12 A299 RMK A01 T01280117  RH  093%=      5-min Rain = 0
KWT1 250240Z 21008KT 13/12 A299 RMK A01 T01280117  RH  093%=      5-min Rain = 0
KWT1 250241Z 21007KT 13/12 A299 RMK A01 T01280117  RH  093%=      5-min Rain = 0
KWT1 250242Z 21007KT 13/12 A299 RMK A01 T01280116  RH  093%=      5-min Rain = 0
KWT1 250243Z 22007KT 13/12 A299 RMK A01 T01280117  RH  093%=      5-min Rain = 0
KWT1 250244Z 22007KT 13/12 A299 RMK A01 T01280116  RH  093%=      5-min Rain = 0
KWT1 250245Z 22007KT 13/12 A2991 RMK A01 T01280116  RH  093%=      5-min Rain = 0
KWT1 250246Z 22008KT 13/12 A2991 RMK A01 T01280117  RH  093%=      5-min Rain = 0
KWT1 250247Z 22007KT 13/12 A2991 RMK A01 T01280116  RH  093%=      5-min Rain = 0
KWT1 250248Z 22008KT 13/12 A2991 RMK A01 T01280116  RH  093%=      5-min Rain = 0
KWT1 250249Z 22008KT 13/12 A2991 RMK A01 T01280116  RH  092%=      5-min Rain = 0
KWT1 250250Z 22008KT 13/12 A2991 RMK A01 T01280115  RH  092%=      5-min Rain = 0
KWT1 250251Z 22008KT 13/12 A2991 RMK A01 T01280115  RH  092%=      5-min Rain = 0
KWT1 250252Z 22008KT 13/12 A299 RMK A01 T01280115  RH  092%=      5-min Rain = 0
KWT1 250253Z 22007KT 13/12 A2991 RMK A01 T01290115  RH  091%=      5-min Rain = 0
KWT1 250254Z 22007KT 13/11 A2991 RMK A01 T01280114  RH  091%=      5-min Rain = 0
KWT1 250255Z 22007KT 13/11 A2991 RMK A01 T01280114  RH  091%=      5-min Rain = 0
KWT1 250256Z 21007KT 13/11 A2991 RMK A01 T01280114  RH  091%=      5-min Rain = 0
KWT1 250257Z 22008KT 13/11 A2991 RMK A01 T01280114  RH  091%=      5-min Rain = 0
KWT1 250258Z 22007KT 13/11 A2991 RMK A01 T01280114  RH  091%=      5-min Rain = 0
KWT1 250259Z 22007KT 13/11 A2991 RMK A01 T01280114  RH  091%=      5-min Rain = 0
KWT1 250300Z 22007KT 13/11 A2991 RMK A01 T01270113  RH  091%=      5-min Rain = 0
KWT1 250301Z 22007KT 13/11 A2991 RMK A01 T01270114  RH  091%=      5-min Rain = 0
KWT1 250302Z 22007KT 13/11 A2991 RMK A01 T01270113  RH  092%=      5-min Rain = 0
KWT1 250303Z 22008KT 13/11 A2991 RMK A01 T01270114  RH  092%=      5-min Rain = 0
KWT1 250304Z 22008KT 13/11 A2991 RMK A01 T01270114  RH  092%=      5-min Rain = 0
KWT1 250305Z 22008KT 13/11 A2991 RMK A01 T01270113  RH  092%=      5-min Rain = 0
KWT1 250306Z 22007KT 13/11 A2991 RMK A01 T01270113  RH  091%=      5-min Rain = 0
KWT1 250307Z 22008KT 13/11 A2991 RMK A01 T01270113  RH  091%=      5-min Rain = 0
KWT1 250308Z 22007KT 13/11 A2991 RMK A01 T01270113  RH  091%=      5-min Rain = 0
KWT1 250309Z 22007KT 13/11 A2991 RMK A01 T01270113  RH  091%=      5-min Rain = 0
KWT1 250310Z 22007KT 13/11 A2991 RMK A01 T01260112  RH  091%=      5-min Rain = 0
KWT1 250311Z 22007KT 13/11 A2991 RMK A01 T01260112  RH  091%=      5-min Rain = 0
KWT1 250312Z 22007KT 13/11 A2991 RMK A01 T01270113  RH  091%=      5-min Rain = 0
KWT1 250313Z 22007KT 13/11 A2991 RMK A01 T01270113  RH  091%=      5-min Rain = 0
KWT1 250314Z 22007KT 13/11 A2991 RMK A01 T01260112  RH  091%=      5-min Rain = 0
KWT1 250315Z 22007KT 13/11 A2991 RMK A01 T01260112  RH  091%=      5-min Rain = 0
KWT1 250316Z 22007KT 13/11 A2991 RMK A01 T01260112  RH  091%=      5-min Rain = 0
KWT1 250317Z 22007KT 13/11 A2991 RMK A01 T01260112  RH  091%=      5-min Rain = 0
KWT1 250318Z 22007KT 13/11 A2991 RMK A01 T01260112  RH  091%=      5-min Rain = 0
KWT1 250319Z 22007KT 13/11 A2991 RMK A01 T01260112  RH  091%=      5-min Rain = 0
KWT1 250320Z 22007KT 13/11 A2991 RMK A01 T01250111  RH  091%=      5-min Rain = 0
KWT1 250321Z 22007KT 13/11 A2991 RMK A01 T01250111  RH  091%=      5-min Rain = 0
KWT1 250322Z 22007KT 13/11 A2991 RMK A01 T01250111  RH  091%=      5-min Rain = 0
KWT1 250323Z 22007KT 13/11 A2991 RMK A01 T01250111  RH  091%=      5-min Rain = 0
KWT1 250324Z 22007KT 13/11 A2991 RMK A01 T01250111  RH  091%=      5-min Rain = 0
KWT1 250325Z 22007KT 13/11 A2991 RMK A01 T01250111  RH  091%=      5-min Rain = 0
KWT1 250326Z 22007KT 13/11 A2991 RMK A01 T01250111  RH  091%=      5-min Rain = 0
KWT1 250327Z 22007KT 13/11 A2991 RMK A01 T01250111  RH  091%=      5-min Rain = 0
KWT1 250328Z 22008KT 13/11 A2991 RMK A01 T01250111  RH  091%=      5-min Rain = 0
KWT1 250329Z 22008KT 13/11 A2991 RMK A01 T01250112  RH  091%=      5-min Rain = 0
KWT1 250330Z 22008KT 13/11 A2991 RMK A01 T01250111  RH  091%=      5-min Rain = 0
KWT1 250331Z 22007KT 13/11 A2991 RMK A01 T01250111  RH  091%=      5-min Rain = 0
KWT1 250332Z 22007KT 13/11 A2991 RMK A01 T01260111  RH  091%=      5-min Rain = 0
KWT1 250333Z 22007KT 13/11 A2991 RMK A01 T01260111  RH  091%=      5-min Rain = 0
KWT1 250334Z 22007KT 13/11 A2991 RMK A01 T01260111  RH  091%=      5-min Rain = 0
KWT1 250335Z 22008KT 13/11 A2991 RMK A01 T01250111  RH  091%=      5-min Rain = 0
KWT1 250336Z 22007KT 13/11 A2991 RMK A01 T01250111  RH  091%=      5-min Rain = 0
KWT1 250337Z 22008KT 13/11 A2991 RMK A01 T01250111  RH  091%=      5-min Rain = 0
KWT1 250338Z 22007KT 13/11 A2991 RMK A01 T01250111  RH  091%=      5-min Rain = 0
KWT1 250339Z 22007KT 13/11 A2991 RMK A01 T01250111  RH  091%=      5-min Rain = 0
KWT1 250340Z 22007KT 13/11 A2991 RMK A01 T01250112  RH  091%=      5-min Rain = 0
KWT1 250341Z 22007KT 13/11 A2991 RMK A01 T01250111  RH  091%=      5-min Rain = 0
KWT1 250342Z 22007KT 13/11 A2991 RMK A01 T01250111  RH  091%=      5-min Rain = 0
KWT1 250343Z 22007KT 12/11 A2991 RMK A01 T01240111  RH  092%=      5-min Rain = 0
KWT1 250344Z 22007KT 12/11 A2991 RMK A01 T01240111  RH  092%=      5-min Rain = 0
KWT1 250345Z 23007KT 12/11 A2991 RMK A01 T01240111  RH  092%=      5-min Rain = 0
KWT1 250346Z 22007KT 12/11 A2991 RMK A01 T01240111  RH  092%=      5-min Rain = 0
KWT1 250347Z 23007KT 12/11 A2991 RMK A01 T01230111  RH  092%=      5-min Rain = 0
KWT1 250348Z 23007KT 12/11 A2991 RMK A01 T01230111  RH  092%=      5-min Rain = 0
KWT1 250349Z 23007KT 12/11 A2991 RMK A01 T01220110  RH  092%=      5-min Rain = 0
KWT1 250350Z 23007KT 12/11 A2991 RMK A01 T01220110  RH  092%=      5-min Rain = 0
KWT1 250351Z 23007KT 12/11 A2991 RMK A01 T01220110  RH  092%=      5-min Rain = 0
KWT1 250352Z 22007KT 12/11 A2991 RMK A01 T01220110  RH  093%=      5-min Rain = 0
KWT1 250353Z 23007KT 12/11 A2991 RMK A01 T01220110  RH  093%=      5-min Rain = 0
KWT1 250354Z 23007KT 12/11 A2991 RMK A01 T01210110  RH  093%=      5-min Rain = 0
KWT1 250355Z 22007KT 12/11 A2991 RMK A01 T01210110  RH  093%=      5-min Rain = 0
KWT1 250356Z 22007KT 12/11 A2991 RMK A01 T01210110  RH  093%=      5-min Rain = 0
KWT1 250357Z 22007KT 12/11 A2991 RMK A01 T01210110  RH  093%=      5-min Rain = 0
KWT1 250358Z 22007KT 12/11 A2991 RMK A01 T01210110  RH  093%=      5-min Rain = 0
KWT1 250359Z 22007KT 12/11 A2991 RMK A01 T01220110  RH  093%=      5-min Rain = 0
KWT1 250400Z 22007KT 12/11 A2991 RMK A01 T01220110  RH  093%=      5-min Rain = 0
KWT1 250401Z 22007KT 12/11 A2991 RMK A01 T01220111  RH  093%=      5-min Rain = 0
KWT1 250402Z 22007KT 12/11 A2991 RMK A01 T01220111  RH  093%=      5-min Rain = 0
KWT1 250403Z 22007KT 12/11 A2991 RMK A01 T01220110  RH  093%=      5-min Rain = 0
KWT1 250404Z 22007KT 12/11 A2991 RMK A01 T01220111  RH  093%=      5-min Rain = 0
KWT1 250405Z 22007KT 12/11 A2991 RMK A01 T01230111  RH  093%=      5-min Rain = 0
KWT1 250406Z 22008KT 12/11 A2991 RMK A01 T01220111  RH  093%=      5-min Rain = 0
KWT1 250407Z 22007KT 12/11 A2991 RMK A01 T01220111  RH  093%=      5-min Rain = 0
KWT1 250408Z 22007KT 12/11 A2991 RMK A01 T01220111  RH  093%=      5-min Rain = 0
KWT1 250409Z 22007KT 12/11 A2991 RMK A01 T01220111  RH  092%=      5-min Rain = 0
KWT1 250410Z 22007KT 12/11 A2991 RMK A01 T01230111  RH  092%=      5-min Rain = 0
KWT1 250411Z 22007KT 12/11 A2991 RMK A01 T01230111  RH  092%=      5-min Rain = 0
KWT1 250412Z 22008KT 12/11 A2991 RMK A01 T01230111  RH  092%=      5-min Rain = 0
KWT1 250413Z 23007KT 12/11 A2991 RMK A01 T01240111  RH  092%=      5-min Rain = 0
KWT1 250414Z 23007KT 12/11 A2991 RMK A01 T01230110  RH  092%=      5-min Rain = 0
KWT1 250415Z 23007KT 12/11 A2991 RMK A01 T01230110  RH  092%=      5-min Rain = 0
KWT1 250416Z 23007KT 12/11 A2991 RMK A01 T01230110  RH  092%=      5-min Rain = 0
KWT1 250417Z 23007KT 12/11 A2991 RMK A01 T01220110  RH  092%=      5-min Rain = 0
KWT1 250418Z 22007KT 12/11 A2991 RMK A01 T01220111  RH  093%=      5-min Rain = 0
KWT1 250419Z 23007KT 12/11 A2991 RMK A01 T01210110  RH  093%=      5-min Rain = 0
KWT1 250420Z 22007KT 12/11 A2991 RMK A01 T01220111  RH  093%=      5-min Rain = 0
KWT1 250421Z 22007KT 12/11 A2991 RMK A01 T01220111  RH  093%=      5-min Rain = 0
KWT1 250422Z 23007KT 12/11 A2991 RMK A01 T01220111  RH  093%=      5-min Rain = 0
KWT1 250423Z 23007KT 12/11 A2991 RMK A01 T01220111  RH  093%=      5-min Rain = 0
KWT1 250424Z 22007KT 12/11 A2991 RMK A01 T01210111  RH  093%=      5-min Rain = 0
KWT1 250425Z 23007KT 12/11 A2991 RMK A01 T01210111  RH  093%=      5-min Rain = 0
KWT1 250426Z 23007KT 12/11 A2991 RMK A01 T01210111  RH  094%=      5-min Rain = 0
KWT1 250427Z 23007KT 12/11 A2991 RMK A01 T01210111  RH  094%=      5-min Rain = 0
KWT1 250428Z 23007KT 12/11 A2991 RMK A01 T01210111  RH  094%=      5-min Rain = 0
KWT1 250429Z 23007KT 12/11 A2991 RMK A01 T01210111  RH  094%=      5-min Rain = 0
KWT1 250430Z 23007KT 12/11 A2991 RMK A01 T01210111  RH  094%=      5-min Rain = 0
KWT1 250431Z 23007KT 12/11 A2991 RMK A01 T01200111  RH  094%=      5-min Rain = 0
KWT1 250432Z 23007KT 12/11 A2991 RMK A01 T01210111  RH  094%=      5-min Rain = 0
KWT1 250433Z 22007KT 12/11 A2991 RMK A01 T01200111  RH  094%=      5-min Rain = 0
KWT1 250434Z 22007KT 12/11 A2991 RMK A01 T01200111  RH  094%=      5-min Rain = 0
KWT1 250435Z 22007KT 12/11 A2991 RMK A01 T01200111  RH  094%=      5-min Rain = 0
KWT1 250436Z 22007KT 12/11 A2991 RMK A01 T01200111  RH  094%=      5-min Rain = 0
KWT1 250437Z 22007KT 12/11 A2991 RMK A01 T01200111  RH  094%=      5-min Rain = 0
KWT1 250438Z 23007KT 12/11 A2991 RMK A01 T01200111  RH  094%=      5-min Rain = 0
KWT1 250439Z 22007KT 12/11 A2991 RMK A01 T01200111  RH  094%=      5-min Rain = 0
KWT1 250440Z 22007KT 12/11 A2991 RMK A01 T01200111  RH  094%=      5-min Rain = 0
KWT1 250441Z 22007KT 12/11 A2991 RMK A01 T01200111  RH  094%=      5-min Rain = 0
KWT1 250442Z 22007KT 12/11 A2991 RMK A01 T01200111  RH  094%=      5-min Rain = 0
KWT1 250443Z 22007KT 12/11 A2991 RMK A01 T01200111  RH  094%=      5-min Rain = 0
KWT1 250444Z 22007KT 12/11 A2991 RMK A01 T01200111  RH  094%=      5-min Rain = 0
KWT1 250445Z 22007KT 12/11 A2991 RMK A01 T01200111  RH  094%=      5-min Rain = 0
KWT1 250446Z 22006KT 12/11 A2991 RMK A01 T01200111  RH  094%=      5-min Rain = 0
KWT1 250447Z 22007KT 12/11 A2991 RMK A01 T01190111  RH  095%=      5-min Rain = 0
KWT1 250448Z 22007KT 12/11 A2991 RMK A01 T01190111  RH  095%=      5-min Rain = 0
KWT1 250449Z 22007KT 12/11 A2991 RMK A01 T01190111  RH  095%=      5-min Rain = 0
KWT1 250450Z 22007KT 12/11 A2991 RMK A01 T01190111  RH  095%=      5-min Rain = 0
KWT1 250451Z 22007KT 12/11 A2991 RMK A01 T01190110  RH  095%=      5-min Rain = 0
KWT1 250452Z 22007KT 12/11 A2991 RMK A01 T01180110  RH  095%=      5-min Rain = 0
KWT1 250453Z 22007KT 12/11 A2991 RMK A01 T01180110  RH  095%=      5-min Rain = 0
KWT1 250454Z 22007KT 12/11 A2991 RMK A01 T01170110  RH  095%=      5-min Rain = 0
KWT1 250455Z 22007KT 12/11 A2991 RMK A01 T01170110  RH  095%=      5-min Rain = 0
KWT1 250456Z 22007KT 12/11 A2991 RMK A01 T01170110  RH  095%=      5-min Rain = 0
KWT1 250457Z 23008KT 12/11 A2991 RMK A01 T01170110  RH  095%=      5-min Rain = 0
KWT1 250458Z 22008KT 12/11 A2991 RMK A01 T01170110  RH  095%=      5-min Rain = 0
KWT1 250459Z 23008KT 12/11 A2991 RMK A01 T01170110  RH  096%=      5-min Rain = 0

Page generated in 0.1221 seconds.